Time,TemperatureF,DewpointF,PressureIn,WindDirection,WindDirectionDegrees,WindSpeedMPH,WindSpeedGustMPH,Humidity,HourlyPrecipIn,Conditions,Clouds,dailyrainin,SoftwareType,DateUTC
2013-11-18 00:01:00,47.3,7.1,29.06,NNW,341,0.0,0.0,19,0.00,,---,0.00,VWS V14.01,2013-11-18 06:01:00,
2013-11-18 00:02:00,47.3,7.1,29.06,West,263,0.0,0.0,19,0.00,,---,0.00,VWS V14.01,2013-11-18 06:02:00,
2013-11-18 00:04:00,47.1,7.0,29.06,West,263,0.0,0.0,19,0.00,,---,0.00,VWS V14.01,2013-11-18 06:04:00,
2013-11-18 00:05:00,47.1,7.0,29.06,West,263,0.0,0.0,19,0.00,,---,0.00,VWS V14.01,2013-11-18 06:05:00,
2013-11-18 00:06:00,47.1,7.0,29.06,SW,229,2.2,2.2,19,0.00,,---,0.00,VWS V14.01,2013-11-18 06:06:00,
2013-11-18 00:07:00,47.1,7.0,29.06,SW,229,2.2,2.2,19,0.00,,---,0.00,VWS V14.01,2013-11-18 06:07:00,
2013-11-18 00:09:00,47.1,7.0,29.06,SW,229,2.2,2.2,19,0.00,,---,0.00,VWS V14.01,2013-11-18 06:09:00,
2013-11-18 00:10:00,47.1,7.0,29.06,WSW,244,0.0,2.2,19,0.00,,---,0.00,VWS V14.01,2013-11-18 06:10:00,
2013-11-18 00:11:00,47.1,7.0,29.06,WSW,244,0.0,0.0,19,0.00,,---,0.00,VWS V14.01,2013-11-18 06:11:00,
2013-11-18 00:12:00,47.1,7.0,29.06,WSW,244,0.0,0.0,19,0.00,,---,0.00,VWS V14.01,2013-11-18 06:12:00,
2013-11-18 00:13:00,46.9,6.8,29.06,WSW,244,0.0,0.0,19,0.00,,---,0.00,VWS V14.01,2013-11-18 06:13:00,
2013-11-18 00:15:00,46.9,6.8,29.06,WSW,244,0.0,0.0,19,0.00,,---,0.00,VWS V14.01,2013-11-18 06:15:00,
2013-11-18 00:17:00,46.9,6.8,29.06,WSW,245,3.6,3.6,19,0.00,,---,0.00,VWS V14.01,2013-11-18 06:17:00,
2013-11-18 00:18:00,46.9,6.8,29.06,WSW,245,3.6,3.6,19,0.00,,---,0.00,VWS V14.01,2013-11-18 06:18:00,
2013-11-18 00:20:00,46.8,6.7,29.06,WSW,245,0.0,0.0,19,0.00,,---,0.00,VWS V14.01,2013-11-18 06:20:00,
2013-11-18 00:22:00,46.8,6.7,29.06,WSW,245,0.0,0.0,19,0.00,,---,0.00,VWS V14.01,2013-11-18 06:22:00,
2013-11-18 00:23:00,46.8,6.7,29.06,WSW,245,0.0,0.0,19,0.00,,---,0.00,VWS V14.01,2013-11-18 06:23:00,
2013-11-18 00:25:00,46.8,6.7,29.06,West,279,0.0,0.0,19,0.00,,---,0.00,VWS V14.01,2013-11-18 06:25:00,
2013-11-18 00:27:00,46.8,6.7,29.06,West,279,0.0,0.0,19,0.00,,---,0.00,VWS V14.01,2013-11-18 06:27:00,
2013-11-18 00:28:00,46.6,6.5,29.06,West,280,0.0,0.0,19,0.00,,---,0.00,VWS V14.01,2013-11-18 06:28:00,
2013-11-18 00:30:00,46.6,6.5,29.06,West,280,0.0,0.0,19,0.00,,---,0.00,VWS V14.01,2013-11-18 06:30:00,
2013-11-18 00:32:00,46.6,6.5,29.06,West,280,0.0,0.0,19,0.00,,---,0.00,VWS V14.01,2013-11-18 06:32:00,
2013-11-18 00:33:00,46.6,6.5,29.06,West,280,0.0,0.0,19,0.00,,---,0.00,VWS V14.01,2013-11-18 06:33:00,
2013-11-18 00:35:00,46.6,6.5,29.06,SSW,211,0.0,0.0,19,0.00,,---,0.00,VWS V14.01,2013-11-18 06:35:00,
2013-11-18 00:37:00,46.4,6.4,29.06,SW,218,0.0,0.0,19,0.00,,---,0.00,VWS V14.01,2013-11-18 06:37:00,
2013-11-18 00:38:00,46.4,6.4,29.06,SW,218,0.0,0.0,19,0.00,,---,0.00,VWS V14.01,2013-11-18 06:38:00,
2013-11-18 00:40:00,46.4,6.4,29.09,SSW,208,0.0,0.0,19,0.00,,---,0.00,VWS V14.01,2013-11-18 06:40:00,
2013-11-18 00:42:00,46.4,6.4,29.09,SSW,208,0.0,0.0,19,0.00,,---,0.00,VWS V14.01,2013-11-18 06:42:00,
2013-11-18 00:43:00,46.4,6.4,29.09,SSW,207,0.0,0.0,19,0.00,,---,0.00,VWS V14.01,2013-11-18 06:43:00,
2013-11-18 00:44:00,46.4,6.4,29.09,SSW,207,0.0,0.0,19,0.00,,---,0.00,VWS V14.01,2013-11-18 06:44:00,
2013-11-18 00:45:00,46.4,6.4,29.09,SSW,207,0.0,0.0,19,0.00,,---,0.00,VWS V14.01,2013-11-18 06:45:00,
2013-11-18 00:47:00,46.2,7.4,29.09,SSW,207,0.0,0.0,20,0.00,,---,0.00,VWS V14.01,2013-11-18 06:47:00,
2013-11-18 00:48:00,46.2,7.4,29.09,SSW,207,0.0,0.0,20,0.00,,---,0.00,VWS V14.01,2013-11-18 06:48:00,
2013-11-18 00:49:00,46.2,7.4,29.09,SSW,207,0.0,0.0,20,0.00,,---,0.00,VWS V14.01,2013-11-18 06:49:00,
2013-11-18 00:50:00,46.0,7.2,29.09,NW,318,0.0,0.0,20,0.00,,---,0.00,VWS V14.01,2013-11-18 06:50:00,
2013-11-18 00:51:00,46.0,7.2,29.09,NW,318,0.0,0.0,20,0.00,,---,0.00,VWS V14.01,2013-11-18 06:51:00,
2013-11-18 00:52:00,46.0,7.2,29.09,NW,311,0.0,0.0,20,0.00,,---,0.00,VWS V14.01,2013-11-18 06:52:00,
2013-11-18 00:53:00,46.0,7.2,29.09,NW,311,0.0,0.0,20,0.00,,---,0.00,VWS V14.01,2013-11-18 06:53:00,
2013-11-18 00:54:00,46.0,7.2,29.09,NW,311,0.0,0.0,20,0.00,,---,0.00,VWS V14.01,2013-11-18 06:54:00,
2013-11-18 00:55:00,46.0,7.2,29.09,WNW,292,0.0,0.0,20,0.00,,---,0.00,VWS V14.01,2013-11-18 06:55:00,
2013-11-18 00:56:00,46.0,7.2,29.09,WNW,292,0.0,0.0,20,0.00,,---,0.00,VWS V14.01,2013-11-18 06:56:00,
2013-11-18 00:57:00,46.0,7.2,29.09,WNW,292,0.0,0.0,20,0.00,,---,0.00,VWS V14.01,2013-11-18 06:57:00,
2013-11-18 00:58:00,45.9,7.1,29.09,WNW,292,0.0,0.0,20,0.00,,---,0.00,VWS V14.01,2013-11-18 06:58:00,
2013-11-18 00:59:00,45.9,7.1,29.09,WNW,292,0.0,0.0,20,0.00,,---,0.00,VWS V14.01,2013-11-18 06:59:00,
2013-11-18 01:01:00,45.9,7.1,29.09,NNW,342,0.0,0.0,20,0.00,,---,0.00,VWS V14.01,2013-11-18 07:01:00,
2013-11-18 01:02:00,45.7,6.9,29.09,NNW,342,0.0,0.0,20,0.00,,---,0.00,VWS V14.01,2013-11-18 07:02:00,
2013-11-18 01:03:00,45.7,6.9,29.09,NNW,343,0.0,0.0,20,0.00,,---,0.00,VWS V14.01,2013-11-18 07:03:00,
2013-11-18 01:04:00,45.7,6.9,29.09,NNW,343,0.0,0.0,20,0.00,,---,0.00,VWS V14.01,2013-11-18 07:04:00,
2013-11-18 01:06:00,45.7,6.9,29.09,NNW,343,0.0,0.0,20,0.00,,---,0.00,VWS V14.01,2013-11-18 07:06:00,
2013-11-18 01:07:00,45.7,6.9,29.09,NNW,343,0.0,0.0,20,0.00,,---,0.00,VWS V14.01,2013-11-18 07:07:00,
2013-11-18 01:08:00,45.5,6.8,29.09,SW,216,0.0,0.0,20,0.00,,---,0.00,VWS V14.01,2013-11-18 07:08:00,
2013-11-18 01:09:00,45.5,6.8,29.09,SW,216,0.0,0.0,20,0.00,,---,0.00,VWS V14.01,2013-11-18 07:09:00,
2013-11-18 01:11:00,45.5,6.8,29.09,SSW,199,0.0,0.0,20,0.00,,---,0.00,VWS V14.01,2013-11-18 07:11:00,
2013-11-18 01:12:00,45.5,6.8,29.09,SSW,199,0.0,0.0,20,0.00,,---,0.00,VWS V14.01,2013-11-18 07:12:00,
2013-11-18 01:13:00,45.3,6.6,29.09,SSW,199,0.0,0.0,20,0.00,,---,0.00,VWS V14.01,2013-11-18 07:13:00,
2013-11-18 01:14:00,45.3,6.6,29.09,SSW,199,0.0,0.0,20,0.00,,---,0.00,VWS V14.01,2013-11-18 07:14:00,
2013-11-18 01:16:00,45.3,6.6,29.09,WNW,302,0.0,0.0,20,0.00,,---,0.00,VWS V14.01,2013-11-18 07:16:00,
2013-11-18 01:17:00,45.3,6.6,29.09,WNW,302,0.0,0.0,20,0.00,,---,0.00,VWS V14.01,2013-11-18 07:17:00,
2013-11-18 01:18:00,45.3,6.6,29.09,WNW,302,0.0,0.0,20,0.00,,---,0.00,VWS V14.01,2013-11-18 07:18:00,
2013-11-18 01:20:00,45.3,6.6,29.09,WNW,302,0.0,0.0,20,0.00,,---,0.00,VWS V14.01,2013-11-18 07:20:00,
2013-11-18 01:21:00,45.3,6.6,29.09,North,0,0.0,0.0,20,0.00,,---,0.00,VWS V14.01,2013-11-18 07:21:00,
2013-11-18 01:22:00,45.3,6.6,29.09,North,0,0.0,0.0,20,0.00,,---,0.00,VWS V14.01,2013-11-18 07:22:00,
2013-11-18 01:23:00,45.1,6.5,29.09,NNE,16,0.0,0.0,20,0.00,,---,0.00,VWS V14.01,2013-11-18 07:23:00,
2013-11-18 01:24:00,45.1,6.5,29.09,NNE,16,0.0,0.0,20,0.00,,---,0.00,VWS V14.01,2013-11-18 07:24:00,
2013-11-18 01:25:00,45.1,6.5,29.09,NNE,16,0.0,0.0,20,0.00,,---,0.00,VWS V14.01,2013-11-18 07:25:00,
2013-11-18 01:26:00,45.0,6.3,29.09,NNE,16,0.0,0.0,20,0.00,,---,0.00,VWS V14.01,2013-11-18 07:26:00,
2013-11-18 01:27:00,45.0,6.3,29.09,NNE,16,0.0,0.0,20,0.00,,---,0.00,VWS V14.01,2013-11-18 07:27:00,
2013-11-18 01:29:00,45.0,6.3,29.09,NW,305,0.0,0.0,20,0.00,,---,0.00,VWS V14.01,2013-11-18 07:29:00,
2013-11-18 01:31:00,45.0,6.3,29.09,NNW,348,0.0,0.0,20,0.00,,---,0.00,VWS V14.01,2013-11-18 07:31:00,
2013-11-18 01:32:00,44.8,6.2,29.09,NNW,348,0.0,0.0,20,0.00,,---,0.00,VWS V14.01,2013-11-18 07:32:00,
2013-11-18 01:34:00,44.8,6.2,29.09,NNW,348,0.0,0.0,20,0.00,,---,0.00,VWS V14.01,2013-11-18 07:34:00,
2013-11-18 01:36:00,44.6,6.0,29.09,NW,325,0.0,0.0,20,0.00,,---,0.00,VWS V14.01,2013-11-18 07:36:00,
2013-11-18 01:37:00,44.6,6.0,29.09,NW,317,0.0,0.0,20,0.00,,---,0.00,VWS V14.01,2013-11-18 07:37:00,
2013-11-18 01:39:00,44.6,6.0,29.09,NW,304,0.0,0.0,20,0.00,,---,0.00,VWS V14.01,2013-11-18 07:39:00,
2013-11-18 01:41:00,44.6,6.0,29.09,NW,304,0.0,0.0,20,0.00,,---,0.00,VWS V14.01,2013-11-18 07:41:00,
2013-11-18 01:42:00,44.6,6.0,29.09,NW,304,0.0,0.0,20,0.00,,---,0.00,VWS V14.01,2013-11-18 07:42:00,
2013-11-18 01:43:00,44.6,6.0,29.09,NW,304,0.0,0.0,20,0.00,,---,0.00,VWS V14.01,2013-11-18 07:43:00,
2013-11-18 01:44:00,44.6,6.0,29.09,WNW,298,0.0,0.0,20,0.00,,---,0.00,VWS V14.01,2013-11-18 07:44:00,
2013-11-18 01:46:00,44.6,6.0,29.09,WNW,298,0.0,0.0,20,0.00,,---,0.00,VWS V14.01,2013-11-18 07:46:00,
2013-11-18 01:48:00,44.6,6.0,29.09,NNW,335,0.0,0.0,20,0.00,,---,0.00,VWS V14.01,2013-11-18 07:48:00,
2013-11-18 01:49:00,44.4,5.9,29.09,NNW,335,0.0,0.0,20,0.00,,---,0.00,VWS V14.01,2013-11-18 07:49:00,
2013-11-18 01:51:00,44.2,5.7,29.09,NNW,335,0.0,0.0,20,0.00,,---,0.00,VWS V14.01,2013-11-18 07:51:00,
2013-11-18 01:53:00,44.2,5.7,29.09,NNW,335,0.0,0.0,20,0.00,,---,0.00,VWS V14.01,2013-11-18 07:53:00,
2013-11-18 01:54:00,44.2,5.7,29.09,NNW,335,0.0,0.0,20,0.00,,---,0.00,VWS V14.01,2013-11-18 07:54:00,
2013-11-18 01:56:00,44.2,5.7,29.09,NNW,335,0.0,0.0,20,0.00,,---,0.00,VWS V14.01,2013-11-18 07:56:00,
2013-11-18 01:58:00,44.2,5.7,29.09,NNW,335,0.0,0.0,20,0.00,,---,0.00,VWS V14.01,2013-11-18 07:58:00,
2013-11-18 01:59:00,44.1,5.6,29.09,NNW,335,0.0,0.0,20,0.00,,---,0.00,VWS V14.01,2013-11-18 07:59:00,
2013-11-18 02:02:00,43.9,5.4,29.09,NNW,333,0.0,0.0,20,0.00,,---,0.00,VWS V14.01,2013-11-18 08:02:00,
2013-11-18 02:03:00,43.9,5.4,29.09,NNW,333,0.0,0.0,20,0.00,,---,0.00,VWS V14.01,2013-11-18 08:03:00,
2013-11-18 02:04:00,43.9,5.4,29.09,North,4,0.0,0.0,20,0.00,,---,0.00,VWS V14.01,2013-11-18 08:04:00,
2013-11-18 02:05:00,43.9,5.4,29.09,North,4,0.0,0.0,20,0.00,,---,0.00,VWS V14.01,2013-11-18 08:05:00,
2013-11-18 02:08:00,43.7,5.3,29.09,North,357,0.0,0.0,20,0.00,,---,0.00,VWS V14.01,2013-11-18 08:08:00,
2013-11-18 02:09:00,43.7,5.3,29.09,North,357,0.0,0.0,20,0.00,,---,0.00,VWS V14.01,2013-11-18 08:09:00,
2013-11-18 02:10:00,43.7,5.3,29.09,North,6,2.2,2.2,20,0.00,,---,0.00,VWS V14.01,2013-11-18 08:10:00,
2013-11-18 02:14:00,43.7,5.3,29.09,North,0,0.0,0.0,20,0.00,,---,0.00,VWS V14.01,2013-11-18 08:14:00,
2013-11-18 02:15:00,43.7,5.3,29.09,NNW,335,3.1,3.1,20,0.00,,---,0.00,VWS V14.01,2013-11-18 08:15:00,
2013-11-18 02:19:00,43.3,5.0,29.09,NW,315,0.0,0.0,20,0.00,,---,0.00,VWS V14.01,2013-11-18 08:19:00,
2013-11-18 02:20:00,43.3,5.0,29.09,NW,315,0.0,0.0,20,0.00,,---,0.00,VWS V14.01,2013-11-18 08:20:00,
2013-11-18 02:24:00,43.2,4.8,29.09,NW,315,0.0,0.0,20,0.00,,---,0.00,VWS V14.01,2013-11-18 08:24:00,
2013-11-18 02:25:00,43.2,4.8,29.09,NW,315,0.0,0.0,20,0.00,,---,0.00,VWS V14.01,2013-11-18 08:25:00,
2013-11-18 02:29:00,43.0,4.7,29.06,NW,320,0.0,0.0,20,0.00,,---,0.00,VWS V14.01,2013-11-18 08:29:00,
2013-11-18 02:30:00,43.0,4.7,29.06,NW,320,0.0,0.0,20,0.00,,---,0.00,VWS V14.01,2013-11-18 08:30:00,
2013-11-18 02:31:00,43.0,4.7,29.06,NW,320,0.0,0.0,20,0.00,,---,0.00,VWS V14.01,2013-11-18 08:31:00,
2013-11-18 02:34:00,43.0,4.7,29.06,North,0,0.0,0.0,20,0.00,,---,0.00,VWS V14.01,2013-11-18 08:34:00,
2013-11-18 02:35:00,43.0,4.7,29.06,North,0,0.0,0.0,20,0.00,,---,0.00,VWS V14.01,2013-11-18 08:35:00,
2013-11-18 02:36:00,42.8,4.5,29.06,North,0,0.0,0.0,20,0.00,,---,0.00,VWS V14.01,2013-11-18 08:36:00,
2013-11-18 02:39:00,42.8,4.5,29.06,WNW,300,3.1,3.1,20,0.00,,---,0.00,VWS V14.01,2013-11-18 08:39:00,
2013-11-18 02:40:00,42.6,5.4,29.06,WNW,300,3.1,3.1,21,0.00,,---,0.00,VWS V14.01,2013-11-18 08:40:00,
2013-11-18 02:41:00,42.6,5.4,29.06,North,353,3.1,3.1,21,0.00,,---,0.00,VWS V14.01,2013-11-18 08:41:00,
2013-11-18 02:45:00,42.6,5.4,29.09,North,353,3.1,3.1,21,0.00,,---,0.00,VWS V14.01,2013-11-18 08:45:00,
2013-11-18 02:46:00,42.6,5.4,29.09,North,353,3.1,3.1,21,0.00,,---,0.00,VWS V14.01,2013-11-18 08:46:00,
2013-11-18 02:50:00,42.4,5.3,29.09,NNW,335,3.1,3.6,21,0.00,,---,0.00,VWS V14.01,2013-11-18 08:50:00,
2013-11-18 02:51:00,42.4,5.3,29.09,NNW,335,3.1,3.1,21,0.00,,---,0.00,VWS V14.01,2013-11-18 08:51:00,
2013-11-18 02:55:00,42.4,5.3,29.09,NW,305,0.0,0.0,21,0.00,,---,0.00,VWS V14.01,2013-11-18 08:55:00,
2013-11-18 02:56:00,42.4,5.3,29.09,NNE,15,0.0,0.0,21,0.00,,---,0.00,VWS V14.01,2013-11-18 08:56:00,
2013-11-18 03:00:00,42.4,5.3,29.09,NNW,344,2.7,2.7,21,0.00,,---,0.00,VWS V14.01,2013-11-18 09:00:00,
2013-11-18 03:01:00,42.4,5.3,29.09,NNW,344,0.0,2.7,21,0.00,,---,0.00,VWS V14.01,2013-11-18 09:01:00,
2013-11-18 03:02:00,42.4,5.3,29.09,NNW,344,0.0,0.0,21,0.00,,---,0.00,VWS V14.01,2013-11-18 09:02:00,
2013-11-18 03:06:00,42.3,5.1,29.09,NNW,344,0.0,0.0,21,0.00,,---,0.00,VWS V14.01,2013-11-18 09:06:00,
2013-11-18 03:07:00,42.3,5.1,29.09,NNW,337,0.0,0.0,21,0.00,,---,0.00,VWS V14.01,2013-11-18 09:07:00,
2013-11-18 03:11:00,42.3,5.1,29.09,NNW,337,0.0,0.0,21,0.00,,---,0.00,VWS V14.01,2013-11-18 09:11:00,
2013-11-18 03:12:00,42.1,5.0,29.09,NNW,337,0.0,0.0,21,0.00,,---,0.00,VWS V14.01,2013-11-18 09:12:00,
2013-11-18 03:16:00,42.1,5.0,29.09,NW,318,0.0,0.0,21,0.00,,---,0.00,VWS V14.01,2013-11-18 09:16:00,
2013-11-18 03:17:00,42.1,5.0,29.09,NW,318,0.0,0.0,21,0.00,,---,0.00,VWS V14.01,2013-11-18 09:17:00,
2013-11-18 03:18:00,42.1,5.0,29.09,NW,318,0.0,0.0,21,0.00,,---,0.00,VWS V14.01,2013-11-18 09:18:00,
2013-11-18 03:21:00,42.1,5.0,29.09,NW,318,0.0,0.0,21,0.00,,---,0.00,VWS V14.01,2013-11-18 09:21:00,
2013-11-18 03:22:00,42.1,5.0,29.09,NW,318,0.0,0.0,21,0.00,,---,0.00,VWS V14.01,2013-11-18 09:22:00,
2013-11-18 03:23:00,42.1,5.0,29.09,NW,308,0.0,0.0,21,0.00,,---,0.00,VWS V14.01,2013-11-18 09:23:00,
2013-11-18 03:26:00,41.7,4.7,29.09,NNW,334,0.0,3.6,21,0.00,,---,0.00,VWS V14.01,2013-11-18 09:26:00,
2013-11-18 03:27:00,41.7,4.7,29.09,NNW,334,0.0,0.0,21,0.00,,---,0.00,VWS V14.01,2013-11-18 09:27:00,
2013-11-18 03:28:00,41.7,4.7,29.09,NNW,334,0.0,0.0,21,0.00,,---,0.00,VWS V14.01,2013-11-18 09:28:00,
2013-11-18 03:29:00,41.7,4.7,29.09,NNW,334,0.0,0.0,21,0.00,,---,0.00,VWS V14.01,2013-11-18 09:29:00,
2013-11-18 03:32:00,41.5,4.5,29.09,NW,305,0.0,0.0,21,0.00,,---,0.00,VWS V14.01,2013-11-18 09:32:00,
2013-11-18 03:33:00,41.5,4.5,29.09,NW,305,0.0,0.0,21,0.00,,---,0.00,VWS V14.01,2013-11-18 09:33:00,
2013-11-18 03:34:00,41.5,4.5,29.09,NW,305,0.0,0.0,21,0.00,,---,0.00,VWS V14.01,2013-11-18 09:34:00,
2013-11-18 03:37:00,41.5,4.5,29.09,NW,316,2.7,2.7,21,0.00,,---,0.00,VWS V14.01,2013-11-18 09:37:00,
2013-11-18 03:38:00,41.5,4.5,29.09,NW,316,2.7,2.7,21,0.00,,---,0.00,VWS V14.01,2013-11-18 09:38:00,
2013-11-18 03:39:00,41.2,4.2,29.09,NW,315,0.0,0.0,21,0.00,,---,0.00,VWS V14.01,2013-11-18 09:39:00,
2013-11-18 03:42:00,41.2,4.2,29.09,NW,315,0.0,0.0,21,0.00,,---,0.00,VWS V14.01,2013-11-18 09:42:00,
2013-11-18 03:43:00,41.2,4.2,29.09,NW,315,0.0,0.0,21,0.00,,---,0.00,VWS V14.01,2013-11-18 09:43:00,
2013-11-18 03:44:00,41.2,4.2,29.09,NW,315,0.0,0.0,21,0.00,,---,0.00,VWS V14.01,2013-11-18 09:44:00,
2013-11-18 03:47:00,41.2,4.2,29.09,NW,316,0.0,0.0,21,0.00,,---,0.00,VWS V14.01,2013-11-18 09:47:00,
2013-11-18 03:48:00,41.0,4.1,29.09,NNW,342,2.2,2.2,21,0.00,,---,0.00,VWS V14.01,2013-11-18 09:48:00,
2013-11-18 03:49:00,41.0,4.1,29.09,NNW,342,2.2,2.2,21,0.00,,---,0.00,VWS V14.01,2013-11-18 09:49:00,
2013-11-18 03:52:00,41.0,4.1,29.09,NW,306,2.2,2.7,21,0.00,,---,0.00,VWS V14.01,2013-11-18 09:52:00,
2013-11-18 03:53:00,41.0,4.1,29.09,NW,306,2.2,2.2,21,0.00,,---,0.00,VWS V14.01,2013-11-18 09:53:00,
2013-11-18 03:54:00,41.0,4.1,29.09,NW,307,0.0,2.2,21,0.00,,---,0.00,VWS V14.01,2013-11-18 09:54:00,
2013-11-18 03:57:00,40.8,3.9,29.09,NNW,344,0.0,0.0,21,0.00,,---,0.00,VWS V14.01,2013-11-18 09:57:00,
2013-11-18 03:58:00,40.8,3.9,29.09,NNW,334,0.0,0.0,21,0.00,,---,0.00,VWS V14.01,2013-11-18 09:58:00,
2013-11-18 03:59:00,40.8,3.9,29.09,NNW,334,0.0,0.0,21,0.00,,---,0.00,VWS V14.01,2013-11-18 09:59:00,
2013-11-18 04:00:00,40.8,3.9,29.09,NW,326,0.0,0.0,21,0.00,,---,0.00,VWS V14.01,2013-11-18 10:00:00,
2013-11-18 04:02:00,40.8,3.9,29.09,NW,326,0.0,0.0,21,0.00,,---,0.00,VWS V14.01,2013-11-18 10:02:00,
2013-11-18 04:03:00,40.8,3.9,29.09,NW,326,0.0,0.0,21,0.00,,---,0.00,VWS V14.01,2013-11-18 10:03:00,
2013-11-18 04:04:00,40.8,3.9,29.09,NW,326,0.0,0.0,21,0.00,,---,0.00,VWS V14.01,2013-11-18 10:04:00,
2013-11-18 04:05:00,40.8,3.9,29.09,NW,326,0.0,0.0,21,0.00,,---,0.00,VWS V14.01,2013-11-18 10:05:00,
2013-11-18 04:07:00,40.5,3.6,29.09,NW,304,0.0,0.0,21,0.00,,---,0.00,VWS V14.01,2013-11-18 10:07:00,
2013-11-18 04:08:00,40.5,3.6,29.09,NW,304,0.0,0.0,21,0.00,,---,0.00,VWS V14.01,2013-11-18 10:08:00,
2013-11-18 04:09:00,40.5,3.6,29.09,NW,304,0.0,0.0,21,0.00,,---,0.00,VWS V14.01,2013-11-18 10:09:00,
2013-11-18 04:10:00,40.5,3.6,29.09,NW,304,0.0,0.0,21,0.00,,---,0.00,VWS V14.01,2013-11-18 10:10:00,
2013-11-18 04:12:00,40.5,3.6,29.09,NW,304,0.0,0.0,21,0.00,,---,0.00,VWS V14.01,2013-11-18 10:12:00,
2013-11-18 04:13:00,40.5,3.6,29.09,NW,304,0.0,0.0,21,0.00,,---,0.00,VWS V14.01,2013-11-18 10:13:00,
2013-11-18 04:14:00,40.5,3.6,29.09,NW,304,0.0,0.0,21,0.00,,---,0.00,VWS V14.01,2013-11-18 10:14:00,
2013-11-18 04:15:00,40.3,3.5,29.09,NW,304,0.0,0.0,21,0.00,,---,0.00,VWS V14.01,2013-11-18 10:15:00,
2013-11-18 04:16:00,40.3,3.5,29.09,NW,304,0.0,0.0,21,0.00,,---,0.00,VWS V14.01,2013-11-18 10:16:00,
2013-11-18 04:17:00,40.3,3.5,29.09,NW,304,0.0,0.0,21,0.00,,---,0.00,VWS V14.01,2013-11-18 10:17:00,
2013-11-18 04:19:00,40.3,3.5,29.09,NW,304,0.0,0.0,21,0.00,,---,0.00,VWS V14.01,2013-11-18 10:19:00,
2013-11-18 04:20:00,40.3,3.5,29.09,NW,304,0.0,0.0,21,0.00,,---,0.00,VWS V14.01,2013-11-18 10:20:00,
2013-11-18 04:21:00,40.3,3.5,29.09,NW,304,0.0,0.0,21,0.00,,---,0.00,VWS V14.01,2013-11-18 10:21:00,
2013-11-18 04:22:00,40.3,3.5,29.09,NW,304,0.0,0.0,21,0.00,,---,0.00,VWS V14.01,2013-11-18 10:22:00,
2013-11-18 04:24:00,39.9,3.2,29.09,NW,304,0.0,0.0,21,0.00,,---,0.00,VWS V14.01,2013-11-18 10:24:00,
2013-11-18 04:25:00,39.9,3.2,29.09,WNW,300,2.2,2.2,21,0.00,,---,0.00,VWS V14.01,2013-11-18 10:25:00,
2013-11-18 04:26:00,39.9,3.2,29.09,WNW,300,2.2,2.2,21,0.00,,---,0.00,VWS V14.01,2013-11-18 10:26:00,
2013-11-18 04:27:00,39.9,3.2,29.09,WNW,300,0.0,0.0,21,0.00,,---,0.00,VWS V14.01,2013-11-18 10:27:00,
2013-11-18 04:29:00,39.9,3.2,29.09,WNW,300,0.0,0.0,21,0.00,,---,0.00,VWS V14.01,2013-11-18 10:29:00,
2013-11-18 04:30:00,39.9,3.2,29.09,WNW,300,0.0,0.0,21,0.00,,---,0.00,VWS V14.01,2013-11-18 10:30:00,
2013-11-18 04:31:00,39.9,3.2,29.09,WNW,300,0.0,0.0,21,0.00,,---,0.00,VWS V14.01,2013-11-18 10:31:00,
2013-11-18 04:33:00,39.9,3.2,29.09,WNW,300,0.0,0.0,21,0.00,,---,0.00,VWS V14.01,2013-11-18 10:33:00,
2013-11-18 04:34:00,39.7,3.0,29.09,WNW,300,0.0,0.0,21,0.00,,---,0.00,VWS V14.01,2013-11-18 10:34:00,
2013-11-18 04:35:00,39.7,3.0,29.09,WNW,300,0.0,0.0,21,0.00,,---,0.00,VWS V14.01,2013-11-18 10:35:00,
2013-11-18 04:36:00,39.7,3.0,29.09,WNW,300,0.0,0.0,21,0.00,,---,0.00,VWS V14.01,2013-11-18 10:36:00,
2013-11-18 04:38:00,39.7,3.0,29.09,WNW,300,0.0,0.0,21,0.00,,---,0.00,VWS V14.01,2013-11-18 10:38:00,
2013-11-18 04:39:00,39.7,3.0,29.09,WNW,300,0.0,0.0,21,0.00,,---,0.00,VWS V14.01,2013-11-18 10:39:00,
2013-11-18 04:40:00,39.7,3.0,29.09,WNW,300,0.0,0.0,21,0.00,,---,0.00,VWS V14.01,2013-11-18 10:40:00,
2013-11-18 04:41:00,39.7,3.0,29.09,WNW,300,0.0,0.0,21,0.00,,---,0.00,VWS V14.01,2013-11-18 10:41:00,
2013-11-18 04:43:00,39.4,2.7,29.09,WNW,300,0.0,0.0,21,0.00,,---,0.00,VWS V14.01,2013-11-18 10:43:00,
2013-11-18 04:45:00,39.4,2.7,29.12,WNW,300,0.0,0.0,21,0.00,,---,0.00,VWS V14.01,2013-11-18 10:45:00,
2013-11-18 04:46:00,39.4,2.7,29.12,WNW,300,0.0,0.0,21,0.00,,---,0.00,VWS V14.01,2013-11-18 10:46:00,
2013-11-18 04:47:00,39.4,2.7,29.12,WNW,300,0.0,0.0,21,0.00,,---,0.00,VWS V14.01,2013-11-18 10:47:00,
2013-11-18 04:48:00,39.4,2.7,29.12,WNW,300,0.0,0.0,21,0.00,,---,0.00,VWS V14.01,2013-11-18 10:48:00,
2013-11-18 04:50:00,39.4,2.7,29.12,WNW,300,0.0,0.0,21,0.00,,---,0.00,VWS V14.01,2013-11-18 10:50:00,
2013-11-18 04:52:00,39.2,2.6,29.12,WNW,300,0.0,0.0,21,0.00,,---,0.00,VWS V14.01,2013-11-18 10:52:00,
2013-11-18 04:53:00,39.2,2.6,29.12,WNW,300,0.0,0.0,21,0.00,,---,0.00,VWS V14.01,2013-11-18 10:53:00,
2013-11-18 04:55:00,39.2,2.6,29.12,WNW,300,0.0,0.0,21,0.00,,---,0.00,VWS V14.01,2013-11-18 10:55:00,
2013-11-18 04:57:00,39.0,2.4,29.12,WNW,300,0.0,0.0,21,0.00,,---,0.00,VWS V14.01,2013-11-18 10:57:00,
2013-11-18 04:58:00,39.0,2.4,29.12,WNW,300,0.0,0.0,21,0.00,,---,0.00,VWS V14.01,2013-11-18 10:58:00,
2013-11-18 05:00:00,39.0,2.4,29.12,WNW,300,0.0,0.0,21,0.00,,---,0.00,VWS V14.01,2013-11-18 11:00:00,
2013-11-18 05:02:00,38.8,2.3,29.12,WNW,300,0.0,0.0,21,0.00,,---,0.00,VWS V14.01,2013-11-18 11:02:00,
2013-11-18 05:03:00,38.8,2.3,29.12,WNW,300,0.0,0.0,21,0.00,,---,0.00,VWS V14.01,2013-11-18 11:03:00,
2013-11-18 05:05:00,38.8,2.3,29.12,WNW,300,0.0,0.0,21,0.00,,---,0.00,VWS V14.01,2013-11-18 11:05:00,
2013-11-18 05:07:00,38.8,2.3,29.12,West,275,0.0,0.0,21,0.00,,---,0.00,VWS V14.01,2013-11-18 11:07:00,
2013-11-18 05:08:00,38.8,2.3,29.12,West,275,0.0,0.0,21,0.00,,---,0.00,VWS V14.01,2013-11-18 11:08:00,
2013-11-18 05:10:00,38.5,2.0,29.15,West,275,0.0,0.0,21,0.00,,---,0.00,VWS V14.01,2013-11-18 11:10:00,
2013-11-18 05:12:00,38.5,2.0,29.15,West,275,0.0,0.0,21,0.00,,---,0.00,VWS V14.01,2013-11-18 11:12:00,
2013-11-18 05:13:00,38.5,2.0,29.15,West,275,0.0,0.0,21,0.00,,---,0.00,VWS V14.01,2013-11-18 11:13:00,
2013-11-18 05:15:00,38.5,2.0,29.15,West,275,0.0,0.0,21,0.00,,---,0.00,VWS V14.01,2013-11-18 11:15:00,
2013-11-18 05:16:00,38.5,2.0,29.15,West,275,0.0,0.0,21,0.00,,---,0.00,VWS V14.01,2013-11-18 11:16:00,
2013-11-18 05:17:00,38.5,2.0,29.15,West,275,0.0,0.0,21,0.00,,---,0.00,VWS V14.01,2013-11-18 11:17:00,
2013-11-18 05:18:00,38.5,2.0,29.15,West,275,0.0,0.0,21,0.00,,---,0.00,VWS V14.01,2013-11-18 11:18:00,
2013-11-18 05:20:00,38.3,1.8,29.15,West,275,0.0,0.0,21,0.00,,---,0.00,VWS V14.01,2013-11-18 11:20:00,
2013-11-18 05:21:00,38.3,1.8,29.15,West,275,0.0,0.0,21,0.00,,---,0.00,VWS V14.01,2013-11-18 11:21:00,
2013-11-18 05:22:00,38.3,1.8,29.15,West,275,0.0,0.0,21,0.00,,---,0.00,VWS V14.01,2013-11-18 11:22:00,
2013-11-18 05:23:00,38.3,1.8,29.15,West,275,0.0,0.0,21,0.00,,---,0.00,VWS V14.01,2013-11-18 11:23:00,
2013-11-18 05:25:00,38.3,1.8,29.15,West,273,0.0,0.0,21,0.00,,---,0.00,VWS V14.01,2013-11-18 11:25:00,
2013-11-18 05:26:00,38.3,1.8,29.15,West,273,0.0,0.0,21,0.00,,---,0.00,VWS V14.01,2013-11-18 11:26:00,
2013-11-18 05:27:00,38.1,1.6,29.15,West,273,0.0,0.0,21,0.00,,---,0.00,VWS V14.01,2013-11-18 11:27:00,
2013-11-18 05:28:00,38.1,1.6,29.15,West,273,0.0,0.0,21,0.00,,---,0.00,VWS V14.01,2013-11-18 11:28:00,
2013-11-18 05:29:00,38.1,1.6,29.15,West,273,0.0,0.0,21,0.00,,---,0.00,VWS V14.01,2013-11-18 11:29:00,
2013-11-18 05:30:00,38.1,1.6,29.15,West,261,2.7,2.7,21,0.00,,---,0.00,VWS V14.01,2013-11-18 11:30:00,
2013-11-18 05:31:00,38.1,1.6,29.15,West,261,2.7,2.7,21,0.00,,---,0.00,VWS V14.01,2013-11-18 11:31:00,
2013-11-18 05:33:00,38.1,1.6,29.15,West,261,0.0,0.0,21,0.00,,---,0.00,VWS V14.01,2013-11-18 11:33:00,
2013-11-18 05:34:00,38.1,1.6,29.15,West,260,0.0,0.0,21,0.00,,---,0.00,VWS V14.01,2013-11-18 11:34:00,
2013-11-18 05:35:00,38.1,1.6,29.15,West,260,0.0,0.0,21,0.00,,---,0.00,VWS V14.01,2013-11-18 11:35:00,
2013-11-18 05:36:00,38.1,1.6,29.15,West,260,0.0,0.0,21,0.00,,---,0.00,VWS V14.01,2013-11-18 11:36:00,
2013-11-18 05:38:00,38.1,1.6,29.15,SSW,207,2.2,2.2,21,0.00,,---,0.00,VWS V14.01,2013-11-18 11:38:00,
2013-11-18 05:39:00,38.1,1.6,29.15,SSW,207,2.2,2.2,21,0.00,,---,0.00,VWS V14.01,2013-11-18 11:39:00,
2013-11-18 05:40:00,38.1,1.6,29.15,SSW,207,0.0,2.2,21,0.00,,---,0.00,VWS V14.01,2013-11-18 11:40:00,
2013-11-18 05:41:00,38.1,1.6,29.15,SSW,207,0.0,0.0,21,0.00,,---,0.00,VWS V14.01,2013-11-18 11:41:00,
2013-11-18 05:43:00,38.1,1.6,29.15,SSW,205,3.1,3.1,21,0.00,,---,0.00,VWS V14.01,2013-11-18 11:43:00,
2013-11-18 05:44:00,38.1,1.6,29.15,SSW,205,3.1,3.1,21,0.00,,---,0.00,VWS V14.01,2013-11-18 11:44:00,
2013-11-18 05:45:00,38.1,1.6,29.15,SSW,205,0.0,0.0,21,0.00,,---,0.00,VWS V14.01,2013-11-18 11:45:00,
2013-11-18 05:46:00,38.1,1.6,29.15,SSW,205,0.0,0.0,21,0.00,,---,0.00,VWS V14.01,2013-11-18 11:46:00,
2013-11-18 05:47:00,37.9,1.5,29.15,SSW,205,0.0,0.0,21,0.00,,---,0.00,VWS V14.01,2013-11-18 11:47:00,
2013-11-18 05:48:00,37.9,1.5,29.15,SSW,212,0.0,0.0,21,0.00,,---,0.00,VWS V14.01,2013-11-18 11:48:00,
2013-11-18 05:49:00,37.9,1.5,29.15,SSW,213,0.0,0.0,21,0.00,,---,0.00,VWS V14.01,2013-11-18 11:49:00,
2013-11-18 05:50:00,37.9,1.5,29.15,SSW,213,0.0,0.0,21,0.00,,---,0.00,VWS V14.01,2013-11-18 11:50:00,
2013-11-18 05:51:00,37.9,1.5,29.15,SSW,213,0.0,0.0,21,0.00,,---,0.00,VWS V14.01,2013-11-18 11:51:00,
2013-11-18 05:52:00,37.9,1.5,29.15,SW,236,0.0,0.0,21,0.00,,---,0.00,VWS V14.01,2013-11-18 11:52:00,
2013-11-18 05:53:00,37.9,1.5,29.15,SW,236,0.0,0.0,21,0.00,,---,0.00,VWS V14.01,2013-11-18 11:53:00,
2013-11-18 05:54:00,37.9,1.5,29.18,SW,236,0.0,0.0,21,0.00,,---,0.00,VWS V14.01,2013-11-18 11:54:00,
2013-11-18 05:55:00,37.8,1.4,29.18,SW,236,0.0,0.0,21,0.00,,---,0.00,VWS V14.01,2013-11-18 11:55:00,
2013-11-18 05:56:00,37.8,1.4,29.18,SW,236,0.0,0.0,21,0.00,,---,0.00,VWS V14.01,2013-11-18 11:56:00,
2013-11-18 05:57:00,37.8,1.4,29.18,SW,236,0.0,0.0,21,0.00,,---,0.00,VWS V14.01,2013-11-18 11:57:00,
2013-11-18 05:58:00,37.6,1.2,29.18,SW,218,0.0,0.0,21,0.00,,---,0.00,VWS V14.01,2013-11-18 11:58:00,
2013-11-18 05:59:00,37.6,1.2,29.18,SW,218,0.0,0.0,21,0.00,,---,0.00,VWS V14.01,2013-11-18 11:59:00,
2013-11-18 06:01:00,37.6,1.2,29.18,SSW,200,0.0,0.0,21,0.00,,---,0.00,VWS V14.01,2013-11-18 12:01:00,
2013-11-18 06:02:00,37.6,1.2,29.18,SSW,204,0.0,0.0,21,0.00,,---,0.00,VWS V14.01,2013-11-18 12:02:00,
2013-11-18 06:04:00,37.6,1.2,29.18,SSW,204,0.0,0.0,21,0.00,,---,0.00,VWS V14.01,2013-11-18 12:04:00,
2013-11-18 06:06:00,37.6,1.2,29.18,South,189,0.0,0.0,21,0.00,,---,0.00,VWS V14.01,2013-11-18 12:06:00,
2013-11-18 06:07:00,37.6,1.2,29.18,SSW,195,0.0,0.0,21,0.00,,---,0.00,VWS V14.01,2013-11-18 12:07:00,
2013-11-18 06:09:00,37.6,1.2,29.18,SSW,195,0.0,0.0,21,0.00,,---,0.00,VWS V14.01,2013-11-18 12:09:00,
2013-11-18 06:11:00,37.6,1.2,29.18,SSW,196,0.0,0.0,21,0.00,,---,0.00,VWS V14.01,2013-11-18 12:11:00,
2013-11-18 06:12:00,37.6,1.2,29.18,SSW,196,0.0,0.0,21,0.00,,---,0.00,VWS V14.01,2013-11-18 12:12:00,
2013-11-18 06:14:00,37.4,1.0,29.18,SW,215,0.0,0.0,21,0.00,,---,0.00,VWS V14.01,2013-11-18 12:14:00,
2013-11-18 06:16:00,37.4,1.0,29.18,SW,215,0.0,0.0,21,0.00,,---,0.00,VWS V14.01,2013-11-18 12:16:00,
2013-11-18 06:17:00,37.4,1.0,29.18,SSW,201,3.1,3.1,21,0.00,,---,0.00,VWS V14.01,2013-11-18 12:17:00,
2013-11-18 06:18:00,37.4,1.0,29.18,SSW,201,3.1,3.1,21,0.00,,---,0.00,VWS V14.01,2013-11-18 12:18:00,
2013-11-18 06:19:00,37.4,1.0,29.18,West,263,2.7,2.7,21,0.00,,---,0.00,VWS V14.01,2013-11-18 12:19:00,
2013-11-18 06:20:00,37.4,1.0,29.18,West,263,2.7,2.7,21,0.00,,---,0.00,VWS V14.01,2013-11-18 12:20:00,
2013-11-18 06:21:00,37.4,1.0,29.18,West,263,0.0,0.0,21,0.00,,---,0.00,VWS V14.01,2013-11-18 12:21:00,
2013-11-18 06:23:00,37.2,1.9,29.18,West,261,0.0,0.0,22,0.00,,---,0.00,VWS V14.01,2013-11-18 12:23:00,
2013-11-18 06:24:00,37.2,1.9,29.18,West,260,0.0,0.0,22,0.00,,---,0.00,VWS V14.01,2013-11-18 12:24:00,
2013-11-18 06:25:00,37.2,1.9,29.18,West,260,0.0,0.0,22,0.00,,---,0.00,VWS V14.01,2013-11-18 12:25:00,
2013-11-18 06:26:00,37.2,1.9,29.18,West,260,2.7,2.7,22,0.00,,---,0.00,VWS V14.01,2013-11-18 12:26:00,
2013-11-18 06:28:00,37.0,1.7,29.18,WSW,257,3.1,3.1,22,0.00,,---,0.00,VWS V14.01,2013-11-18 12:28:00,
2013-11-18 06:29:00,37.0,1.7,29.18,WSW,256,0.0,0.0,22,0.00,,---,0.00,VWS V14.01,2013-11-18 12:29:00,
2013-11-18 06:30:00,37.0,1.7,29.18,WSW,256,0.0,0.0,22,0.00,,---,0.00,VWS V14.01,2013-11-18 12:30:00,
2013-11-18 06:31:00,37.0,1.7,29.18,WSW,256,0.0,0.0,22,0.00,,---,0.00,VWS V14.01,2013-11-18 12:31:00,
2013-11-18 06:33:00,37.0,1.7,29.18,WSW,256,0.0,0.0,22,0.00,,---,0.00,VWS V14.01,2013-11-18 12:33:00,
2013-11-18 06:35:00,37.0,1.7,29.18,WSW,256,0.0,0.0,22,0.00,,---,0.00,VWS V14.01,2013-11-18 12:35:00,
2013-11-18 06:36:00,37.0,1.7,29.18,WSW,256,0.0,0.0,22,0.00,,---,0.00,VWS V14.01,2013-11-18 12:36:00,
2013-11-18 06:38:00,37.0,1.7,29.18,WSW,256,0.0,0.0,22,0.00,,---,0.00,VWS V14.01,2013-11-18 12:38:00,
2013-11-18 06:40:00,37.0,1.7,29.18,WSW,256,0.0,0.0,22,0.00,,---,0.00,VWS V14.01,2013-11-18 12:40:00,
2013-11-18 06:41:00,37.0,1.7,29.18,WSW,256,0.0,0.0,22,0.00,,---,0.00,VWS V14.01,2013-11-18 12:41:00,
2013-11-18 06:43:00,37.0,1.7,29.21,WSW,256,0.0,0.0,22,0.00,,---,0.00,VWS V14.01,2013-11-18 12:43:00,
2013-11-18 06:45:00,37.0,1.7,29.21,WSW,256,0.0,0.0,22,0.00,,---,0.00,VWS V14.01,2013-11-18 12:45:00,
2013-11-18 06:46:00,37.0,1.7,29.21,WSW,256,0.0,0.0,22,0.00,,---,0.00,VWS V14.01,2013-11-18 12:46:00,
2013-11-18 06:48:00,36.9,1.6,29.21,WSW,256,0.0,0.0,22,0.00,,---,0.00,VWS V14.01,2013-11-18 12:48:00,
2013-11-18 06:50:00,36.9,1.6,29.21,WSW,256,0.0,0.0,22,0.00,,---,0.00,VWS V14.01,2013-11-18 12:50:00,
2013-11-18 06:51:00,36.9,1.6,29.21,WSW,256,0.0,0.0,22,0.00,,---,0.00,VWS V14.01,2013-11-18 12:51:00,
2013-11-18 06:53:00,36.9,1.6,29.21,WSW,256,0.0,0.0,22,0.00,,---,0.00,VWS V14.01,2013-11-18 12:53:00,
2013-11-18 06:55:00,36.9,1.6,29.21,WSW,256,0.0,0.0,22,0.00,,---,0.00,VWS V14.01,2013-11-18 12:55:00,
2013-11-18 06:56:00,36.9,1.6,29.21,WSW,256,0.0,0.0,22,0.00,,---,0.00,VWS V14.01,2013-11-18 12:56:00,
2013-11-18 06:58:00,36.5,1.3,29.21,WSW,256,0.0,0.0,22,0.00,,---,0.00,VWS V14.01,2013-11-18 12:58:00,
2013-11-18 07:00:00,36.5,1.3,29.21,WSW,256,0.0,0.0,22,0.00,,---,0.00,VWS V14.01,2013-11-18 13:00:00,
2013-11-18 07:01:00,36.5,1.3,29.21,WSW,256,0.0,0.0,22,0.00,,---,0.00,VWS V14.01,2013-11-18 13:01:00,
2013-11-18 07:02:00,36.5,1.3,29.21,WSW,256,0.0,0.0,22,0.00,,---,0.00,VWS V14.01,2013-11-18 13:02:00,
2013-11-18 07:04:00,36.5,1.3,29.21,WSW,256,0.0,0.0,22,0.00,,---,0.00,VWS V14.01,2013-11-18 13:04:00,
2013-11-18 07:05:00,36.5,1.3,29.21,WSW,256,0.0,0.0,22,0.00,,---,0.00,VWS V14.01,2013-11-18 13:05:00,
2013-11-18 07:06:00,36.5,1.3,29.21,WSW,256,0.0,0.0,22,0.00,,---,0.00,VWS V14.01,2013-11-18 13:06:00,
2013-11-18 07:07:00,36.5,1.3,29.21,WSW,256,0.0,0.0,22,0.00,,---,0.00,VWS V14.01,2013-11-18 13:07:00,
2013-11-18 07:09:00,36.3,1.1,29.21,WSW,256,0.0,0.0,22,0.00,,---,0.00,VWS V14.01,2013-11-18 13:09:00,
2013-11-18 07:10:00,36.3,1.1,29.21,WSW,256,0.0,0.0,22,0.00,,---,0.00,VWS V14.01,2013-11-18 13:10:00,
2013-11-18 07:11:00,36.3,1.1,29.21,WSW,256,0.0,0.0,22,0.00,,---,0.00,VWS V14.01,2013-11-18 13:11:00,
2013-11-18 07:12:00,36.3,1.1,29.21,WSW,256,0.0,0.0,22,0.00,,---,0.00,VWS V14.01,2013-11-18 13:12:00,
2013-11-18 07:14:00,36.3,1.1,29.21,WSW,256,0.0,0.0,22,0.00,,---,0.00,VWS V14.01,2013-11-18 13:14:00,
2013-11-18 07:15:00,36.3,1.1,29.21,WSW,256,0.0,0.0,22,0.00,,---,0.00,VWS V14.01,2013-11-18 13:15:00,
2013-11-18 07:16:00,36.3,1.1,29.21,WSW,256,0.0,0.0,22,0.00,,---,0.00,VWS V14.01,2013-11-18 13:16:00,
2013-11-18 07:17:00,36.3,1.1,29.21,WSW,256,0.0,0.0,22,0.00,,---,0.00,VWS V14.01,2013-11-18 13:17:00,
2013-11-18 07:19:00,36.3,1.1,29.21,WSW,256,0.0,0.0,22,0.00,,---,0.00,VWS V14.01,2013-11-18 13:19:00,
2013-11-18 07:20:00,36.3,1.1,29.21,WSW,256,0.0,0.0,22,0.00,,---,0.00,VWS V14.01,2013-11-18 13:20:00,
2013-11-18 07:21:00,36.3,1.1,29.21,WSW,256,0.0,0.0,22,0.00,,---,0.00,VWS V14.01,2013-11-18 13:21:00,
2013-11-18 07:22:00,36.3,1.1,29.21,WSW,256,0.0,0.0,22,0.00,,---,0.00,VWS V14.01,2013-11-18 13:22:00,
2013-11-18 07:25:00,36.3,1.1,29.21,WSW,256,0.0,0.0,22,0.00,,---,0.00,VWS V14.01,2013-11-18 13:25:00,
2013-11-18 07:26:00,36.1,1.0,29.21,WSW,256,0.0,0.0,22,0.00,,---,0.00,VWS V14.01,2013-11-18 13:26:00,
2013-11-18 07:27:00,36.1,1.0,29.21,WSW,256,0.0,0.0,22,0.00,,---,0.00,VWS V14.01,2013-11-18 13:27:00,
2013-11-18 07:28:00,36.1,1.0,29.23,WSW,256,0.0,0.0,22,0.00,,---,0.00,VWS V14.01,2013-11-18 13:28:00,
2013-11-18 07:30:00,36.1,1.0,29.23,WSW,256,0.0,0.0,22,0.00,,---,0.00,VWS V14.01,2013-11-18 13:30:00,
2013-11-18 07:31:00,36.1,1.0,29.23,WSW,256,0.0,0.0,22,0.00,,---,0.00,VWS V14.01,2013-11-18 13:31:00,
2013-11-18 07:32:00,36.1,1.0,29.23,WSW,256,0.0,0.0,22,0.00,,---,0.00,VWS V14.01,2013-11-18 13:32:00,
2013-11-18 07:33:00,36.1,1.0,29.23,WSW,256,0.0,0.0,22,0.00,,---,0.00,VWS V14.01,2013-11-18 13:33:00,
2013-11-18 07:35:00,36.1,1.0,29.23,WSW,256,0.0,0.0,22,0.00,,---,0.00,VWS V14.01,2013-11-18 13:35:00,
2013-11-18 07:37:00,36.0,0.8,29.23,WSW,256,0.0,0.0,22,0.00,,---,0.00,VWS V14.01,2013-11-18 13:37:00,
2013-11-18 07:38:00,36.0,0.8,29.23,WSW,256,0.0,0.0,22,0.00,,---,0.00,VWS V14.01,2013-11-18 13:38:00,
2013-11-18 07:40:00,36.0,0.8,29.23,WSW,256,0.0,0.0,22,0.00,,---,0.00,VWS V14.01,2013-11-18 13:40:00,
2013-11-18 07:41:00,36.0,0.8,29.23,WSW,256,0.0,0.0,22,0.00,,---,0.00,VWS V14.01,2013-11-18 13:41:00,
2013-11-18 07:42:00,36.0,0.8,29.23,WSW,256,0.0,0.0,22,0.00,,---,0.00,VWS V14.01,2013-11-18 13:42:00,
2013-11-18 07:43:00,36.0,0.8,29.23,WSW,256,0.0,0.0,22,0.00,,---,0.00,VWS V14.01,2013-11-18 13:43:00,
2013-11-18 07:45:00,36.1,1.0,29.23,WSW,256,0.0,0.0,22,0.00,,---,0.00,VWS V14.01,2013-11-18 13:45:00,
2013-11-18 07:46:00,36.1,1.0,29.23,WSW,256,0.0,0.0,22,0.00,,---,0.00,VWS V14.01,2013-11-18 13:46:00,
2013-11-18 07:47:00,36.1,1.0,29.23,WSW,255,0.0,0.0,22,0.00,,---,0.00,VWS V14.01,2013-11-18 13:47:00,
2013-11-18 07:48:00,36.1,1.0,29.23,WSW,255,0.0,0.0,22,0.00,,---,0.00,VWS V14.01,2013-11-18 13:48:00,
2013-11-18 07:50:00,36.1,1.0,29.23,WSW,255,0.0,0.0,22,0.00,,---,0.00,VWS V14.01,2013-11-18 13:50:00,
2013-11-18 07:51:00,36.1,1.0,29.23,WSW,255,0.0,0.0,22,0.00,,---,0.00,VWS V14.01,2013-11-18 13:51:00,
2013-11-18 07:52:00,36.1,1.0,29.23,West,264,2.7,2.7,22,0.00,,---,0.00,VWS V14.01,2013-11-18 13:52:00,
2013-11-18 07:53:00,36.1,1.0,29.23,West,264,2.7,2.7,22,0.00,,---,0.00,VWS V14.01,2013-11-18 13:53:00,
2013-11-18 07:54:00,36.3,1.1,29.23,West,264,2.7,2.7,22,0.00,,---,0.00,VWS V14.01,2013-11-18 13:54:00,
2013-11-18 07:55:00,36.3,1.1,29.23,West,264,2.7,2.7,22,0.00,,---,0.00,VWS V14.01,2013-11-18 13:55:00,
2013-11-18 07:56:00,36.3,1.1,29.23,SSW,210,3.1,3.1,22,0.00,,---,0.00,VWS V14.01,2013-11-18 13:56:00,
2013-11-18 07:57:00,36.3,1.1,29.23,SSW,210,3.1,3.1,22,0.00,,---,0.00,VWS V14.01,2013-11-18 13:57:00,
2013-11-18 07:58:00,36.3,1.1,29.23,SSW,210,3.1,3.1,22,0.00,,---,0.00,VWS V14.01,2013-11-18 13:58:00,
2013-11-18 07:59:00,36.3,1.1,29.23,SSW,210,3.1,3.1,22,0.00,,---,0.00,VWS V14.01,2013-11-18 13:59:00,
2013-11-18 08:00:00,36.3,1.1,29.23,SW,214,0.0,0.0,22,0.00,,---,0.00,VWS V14.01,2013-11-18 14:00:00,
2013-11-18 08:01:00,36.3,1.1,29.23,SW,214,0.0,0.0,22,0.00,,---,0.00,VWS V14.01,2013-11-18 14:01:00,
2013-11-18 08:02:00,36.7,1.4,29.23,SW,214,0.0,0.0,22,0.00,,---,0.00,VWS V14.01,2013-11-18 14:02:00,
2013-11-18 08:03:00,36.7,1.4,29.23,SW,214,0.0,0.0,22,0.00,,---,0.00,VWS V14.01,2013-11-18 14:03:00,
2013-11-18 08:04:00,36.7,1.4,29.23,SW,214,0.0,0.0,22,0.00,,---,0.00,VWS V14.01,2013-11-18 14:04:00,
2013-11-18 08:05:00,36.7,1.4,29.23,WSW,251,0.0,0.0,22,0.00,,---,0.00,VWS V14.01,2013-11-18 14:05:00,
2013-11-18 08:06:00,36.7,1.4,29.23,WSW,251,0.0,0.0,22,0.00,,---,0.00,VWS V14.01,2013-11-18 14:06:00,
2013-11-18 08:07:00,36.7,1.4,29.23,WSW,251,0.0,0.0,22,0.00,,---,0.00,VWS V14.01,2013-11-18 14:07:00,
2013-11-18 08:08:00,36.7,1.4,29.23,WSW,251,0.0,0.0,22,0.00,,---,0.00,VWS V14.01,2013-11-18 14:08:00,
2013-11-18 08:09:00,36.7,1.4,29.23,SSW,194,0.0,0.0,22,0.00,,---,0.00,VWS V14.01,2013-11-18 14:09:00,
2013-11-18 08:10:00,36.7,1.4,29.23,SSW,194,0.0,0.0,22,0.00,,---,0.00,VWS V14.01,2013-11-18 14:10:00,
2013-11-18 08:12:00,37.2,1.9,29.23,SSW,194,0.0,0.0,22,0.00,,---,0.00,VWS V14.01,2013-11-18 14:12:00,
2013-11-18 08:13:00,37.2,1.9,29.23,SSW,194,0.0,0.0,22,0.00,,---,0.00,VWS V14.01,2013-11-18 14:13:00,
2013-11-18 08:14:00,37.2,1.9,29.23,West,275,0.0,0.0,22,0.00,,---,0.00,VWS V14.01,2013-11-18 14:14:00,
2013-11-18 08:15:00,37.2,1.9,29.23,West,275,0.0,0.0,22,0.00,,---,0.00,VWS V14.01,2013-11-18 14:15:00,
2013-11-18 08:17:00,37.2,1.9,29.23,West,275,0.0,0.0,22,0.00,,---,0.00,VWS V14.01,2013-11-18 14:17:00,
2013-11-18 08:18:00,37.2,1.9,29.23,WSW,256,0.0,0.0,22,0.00,,---,0.00,VWS V14.01,2013-11-18 14:18:00,
2013-11-18 08:19:00,37.2,1.9,29.23,WSW,256,0.0,0.0,22,0.00,,---,0.00,VWS V14.01,2013-11-18 14:19:00,
2013-11-18 08:20:00,37.2,1.9,29.23,SSW,207,0.0,0.0,22,0.00,,---,0.00,VWS V14.01,2013-11-18 14:20:00,
2013-11-18 08:22:00,37.9,1.5,29.23,SSW,204,0.0,0.0,21,0.00,,---,0.00,VWS V14.01,2013-11-18 14:22:00,
2013-11-18 08:23:00,37.9,1.5,29.23,SSW,204,0.0,0.0,21,0.00,,---,0.00,VWS V14.01,2013-11-18 14:23:00,
2013-11-18 08:25:00,37.9,1.5,29.23,SSW,204,0.0,0.0,21,0.00,,---,0.00,VWS V14.01,2013-11-18 14:25:00,
2013-11-18 08:27:00,37.9,1.5,29.23,SW,220,0.0,0.0,21,0.00,,---,0.00,VWS V14.01,2013-11-18 14:27:00,
2013-11-18 08:28:00,37.9,1.5,29.23,SW,220,0.0,0.0,21,0.00,,---,0.00,VWS V14.01,2013-11-18 14:28:00,
2013-11-18 08:30:00,38.7,2.1,29.23,West,280,0.0,0.0,21,0.00,,---,0.00,VWS V14.01,2013-11-18 14:30:00,
2013-11-18 08:32:00,38.7,2.1,29.23,West,280,0.0,0.0,21,0.00,,---,0.00,VWS V14.01,2013-11-18 14:32:00,
2013-11-18 08:33:00,38.7,2.1,29.23,West,280,0.0,0.0,21,0.00,,---,0.00,VWS V14.01,2013-11-18 14:33:00,
2013-11-18 08:35:00,38.7,2.1,29.23,WNW,298,0.0,0.0,21,0.00,,---,0.00,VWS V14.01,2013-11-18 14:35:00,
2013-11-18 08:36:00,38.7,2.1,29.23,WNW,298,0.0,0.0,21,0.00,,---,0.00,VWS V14.01,2013-11-18 14:36:00,
2013-11-18 08:38:00,38.7,2.1,29.23,SW,227,0.0,0.0,21,0.00,,---,0.00,VWS V14.01,2013-11-18 14:38:00,
2013-11-18 08:39:00,38.7,2.1,29.23,SW,217,0.0,0.0,21,0.00,,---,0.00,VWS V14.01,2013-11-18 14:39:00,
2013-11-18 08:41:00,39.4,2.7,29.23,WSW,237,0.0,0.0,21,0.00,,---,0.00,VWS V14.01,2013-11-18 14:41:00,
2013-11-18 08:43:00,39.4,2.7,29.26,SSW,211,0.0,0.0,21,0.00,,---,0.00,VWS V14.01,2013-11-18 14:43:00,
2013-11-18 08:44:00,39.4,2.7,29.26,SSW,211,0.0,0.0,21,0.00,,---,0.00,VWS V14.01,2013-11-18 14:44:00,
2013-11-18 08:46:00,39.4,2.7,29.26,SSW,208,0.0,0.0,21,0.00,,---,0.00,VWS V14.01,2013-11-18 14:46:00,
2013-11-18 08:48:00,40.3,3.5,29.26,SSW,208,0.0,0.0,21,0.00,,---,0.00,VWS V14.01,2013-11-18 14:48:00,
2013-11-18 08:49:00,40.3,3.5,29.26,SSW,208,0.0,0.0,21,0.00,,---,0.00,VWS V14.01,2013-11-18 14:49:00,
2013-11-18 08:51:00,40.5,3.6,29.26,SSW,208,0.0,0.0,21,0.00,,---,0.00,VWS V14.01,2013-11-18 14:51:00,
2013-11-18 08:52:00,40.5,3.6,29.26,SSW,208,0.0,0.0,21,0.00,,---,0.00,VWS V14.01,2013-11-18 14:52:00,
2013-11-18 08:53:00,40.5,3.6,29.26,WSW,249,0.0,0.0,21,0.00,,---,0.00,VWS V14.01,2013-11-18 14:53:00,
2013-11-18 08:54:00,40.5,3.6,29.26,WSW,249,0.0,0.0,21,0.00,,---,0.00,VWS V14.01,2013-11-18 14:54:00,
2013-11-18 08:56:00,40.5,3.6,29.26,SSW,211,0.0,0.0,21,0.00,,---,0.00,VWS V14.01,2013-11-18 14:56:00,
2013-11-18 08:57:00,40.5,3.6,29.26,SSW,211,0.0,0.0,21,0.00,,---,0.00,VWS V14.01,2013-11-18 14:57:00,
2013-11-18 08:58:00,40.8,3.9,29.26,SSW,201,0.0,0.0,21,0.00,,---,0.00,VWS V14.01,2013-11-18 14:58:00,
2013-11-18 08:59:00,40.8,3.9,29.26,SSW,201,0.0,0.0,21,0.00,,---,0.00,VWS V14.01,2013-11-18 14:59:00,
2013-11-18 09:00:00,40.8,3.9,29.26,South,176,0.0,0.0,21,0.00,,---,0.00,VWS V14.01,2013-11-18 15:00:00,
2013-11-18 09:02:00,41.0,4.1,29.26,South,176,0.0,0.0,21,0.00,,---,0.00,VWS V14.01,2013-11-18 15:02:00,
2013-11-18 09:03:00,41.0,4.1,29.26,SSW,193,0.0,0.0,21,0.00,,---,0.00,VWS V14.01,2013-11-18 15:03:00,
2013-11-18 09:04:00,41.0,4.1,29.26,SSW,193,0.0,0.0,21,0.00,,---,0.00,VWS V14.01,2013-11-18 15:04:00,
2013-11-18 09:05:00,41.0,4.1,29.26,SSW,193,0.0,0.0,21,0.00,,---,0.00,VWS V14.01,2013-11-18 15:05:00,
2013-11-18 09:07:00,41.4,4.4,29.26,SW,221,0.0,0.0,21,0.00,,---,0.00,VWS V14.01,2013-11-18 15:07:00,
2013-11-18 09:09:00,41.4,4.4,29.26,SW,214,0.0,0.0,21,0.00,,---,0.00,VWS V14.01,2013-11-18 15:09:00,
2013-11-18 09:10:00,41.4,4.4,29.26,SW,214,0.0,0.0,21,0.00,,---,0.00,VWS V14.01,2013-11-18 15:10:00,
2013-11-18 09:12:00,41.4,4.4,29.26,North,0,2.7,2.7,21,0.00,,---,0.00,VWS V14.01,2013-11-18 15:12:00,
2013-11-18 09:13:00,41.4,4.4,29.26,North,0,2.7,2.7,21,0.00,,---,0.00,VWS V14.01,2013-11-18 15:13:00,
2013-11-18 09:14:00,41.4,4.4,29.26,North,0,2.7,2.7,21,0.00,,---,0.00,VWS V14.01,2013-11-18 15:14:00,
2013-11-18 09:15:00,41.4,4.4,29.26,NNW,338,0.0,2.7,21,0.00,,---,0.00,VWS V14.01,2013-11-18 15:15:00,
2013-11-18 09:17:00,42.1,5.0,29.26,NNW,338,0.0,0.0,21,0.00,,---,0.00,VWS V14.01,2013-11-18 15:17:00,
2013-11-18 09:18:00,42.1,5.0,29.26,NNW,338,0.0,0.0,21,0.00,,---,0.00,VWS V14.01,2013-11-18 15:18:00,
2013-11-18 09:19:00,42.1,5.0,29.26,NNW,338,0.0,0.0,21,0.00,,---,0.00,VWS V14.01,2013-11-18 15:19:00,
2013-11-18 09:20:00,42.1,5.0,29.26,NNW,338,0.0,0.0,21,0.00,,---,0.00,VWS V14.01,2013-11-18 15:20:00,
2013-11-18 09:22:00,42.1,5.0,29.26,NNW,331,0.0,0.0,21,0.00,,---,0.00,VWS V14.01,2013-11-18 15:22:00,
2013-11-18 09:23:00,42.1,5.0,29.26,NNW,331,0.0,0.0,21,0.00,,---,0.00,VWS V14.01,2013-11-18 15:23:00,
2013-11-18 09:24:00,42.1,5.0,29.26,SW,219,2.2,2.2,21,0.00,,---,0.00,VWS V14.01,2013-11-18 15:24:00,
2013-11-18 09:25:00,42.6,5.4,29.26,SW,219,2.2,2.2,21,0.00,,---,0.00,VWS V14.01,2013-11-18 15:25:00,
2013-11-18 09:26:00,42.6,5.4,29.26,SW,219,2.2,2.2,21,0.00,,---,0.00,VWS V14.01,2013-11-18 15:26:00,
2013-11-18 09:27:00,42.6,5.4,29.26,SW,219,0.0,2.2,21,0.00,,---,0.00,VWS V14.01,2013-11-18 15:27:00,
2013-11-18 09:29:00,42.6,5.4,29.26,SW,219,0.0,0.0,21,0.00,,---,0.00,VWS V14.01,2013-11-18 15:29:00,
2013-11-18 09:30:00,42.6,5.4,29.26,North,353,0.0,0.0,21,0.00,,---,0.00,VWS V14.01,2013-11-18 15:30:00,
2013-11-18 09:31:00,43.0,4.7,29.26,North,353,0.0,0.0,20,0.00,,---,0.00,VWS V14.01,2013-11-18 15:31:00,
2013-11-18 09:32:00,43.0,4.7,29.26,North,353,0.0,0.0,20,0.00,,---,0.00,VWS V14.01,2013-11-18 15:32:00,
2013-11-18 09:34:00,43.3,5.0,29.26,West,270,0.0,0.0,20,0.00,,---,0.00,VWS V14.01,2013-11-18 15:34:00,
2013-11-18 09:35:00,43.3,5.0,29.26,SW,218,0.0,0.0,20,0.00,,---,0.00,VWS V14.01,2013-11-18 15:35:00,
2013-11-18 09:36:00,43.3,5.0,29.26,WSW,249,3.1,3.1,20,0.00,,---,0.00,VWS V14.01,2013-11-18 15:36:00,
2013-11-18 09:37:00,43.3,5.0,29.26,WSW,249,3.1,3.1,20,0.00,,---,0.00,VWS V14.01,2013-11-18 15:37:00,
2013-11-18 09:39:00,43.3,5.0,29.26,WSW,237,2.2,2.2,20,0.00,,---,0.00,VWS V14.01,2013-11-18 15:39:00,
2013-11-18 09:40:00,43.3,5.0,29.26,WSW,237,2.2,2.2,20,0.00,,---,0.00,VWS V14.01,2013-11-18 15:40:00,
2013-11-18 09:42:00,43.7,5.3,29.26,WSW,251,2.7,2.7,20,0.00,,---,0.00,VWS V14.01,2013-11-18 15:42:00,
2013-11-18 09:44:00,43.7,5.3,29.26,WSW,251,2.7,2.7,20,0.00,,---,0.00,VWS V14.01,2013-11-18 15:44:00,
2013-11-18 09:45:00,43.7,5.3,29.26,WSW,251,2.7,2.7,20,0.00,,---,0.00,VWS V14.01,2013-11-18 15:45:00,
2013-11-18 09:47:00,43.7,5.3,29.26,SSW,192,0.0,0.0,20,0.00,,---,0.00,VWS V14.01,2013-11-18 15:47:00,
2013-11-18 09:49:00,43.7,5.3,29.26,WSW,239,0.0,0.0,20,0.00,,---,0.00,VWS V14.01,2013-11-18 15:49:00,
2013-11-18 09:50:00,43.7,5.3,29.26,WSW,239,0.0,0.0,20,0.00,,---,0.00,VWS V14.01,2013-11-18 15:50:00,
2013-11-18 09:51:00,43.7,5.3,29.26,WSW,237,3.6,3.6,20,0.00,,---,0.00,VWS V14.01,2013-11-18 15:51:00,
2013-11-18 09:52:00,44.6,6.0,29.26,SW,233,2.7,2.7,20,0.00,,---,0.00,VWS V14.01,2013-11-18 15:52:00,
2013-11-18 09:53:00,44.6,6.0,29.26,SW,233,2.7,2.7,20,0.00,,---,0.00,VWS V14.01,2013-11-18 15:53:00,
2013-11-18 09:54:00,44.6,6.0,29.26,WSW,246,2.7,2.7,20,0.00,,---,0.00,VWS V14.01,2013-11-18 15:54:00,
2013-11-18 09:55:00,44.6,6.0,29.26,WSW,246,2.7,2.7,20,0.00,,---,0.00,VWS V14.01,2013-11-18 15:55:00,
2013-11-18 09:56:00,44.6,6.0,29.26,WSW,246,2.7,2.7,20,0.00,,---,0.00,VWS V14.01,2013-11-18 15:56:00,
2013-11-18 09:57:00,44.6,6.0,29.26,WSW,246,2.7,2.7,20,0.00,,---,0.00,VWS V14.01,2013-11-18 15:57:00,
2013-11-18 09:58:00,44.6,6.0,29.26,WSW,246,2.7,2.7,20,0.00,,---,0.00,VWS V14.01,2013-11-18 15:58:00,
2013-11-18 10:00:00,44.6,6.0,29.26,SW,226,0.0,2.7,20,0.00,,---,0.00,VWS V14.01,2013-11-18 16:00:00,
2013-11-18 10:01:00,44.6,6.0,29.26,SW,226,0.0,0.0,20,0.00,,---,0.00,VWS V14.01,2013-11-18 16:01:00,
2013-11-18 10:03:00,45.5,6.8,29.26,SW,214,3.1,3.1,20,0.00,,---,0.00,VWS V14.01,2013-11-18 16:03:00,
2013-11-18 10:04:00,45.5,6.8,29.26,SSW,210,0.0,3.1,20,0.00,,---,0.00,VWS V14.01,2013-11-18 16:04:00,
2013-11-18 10:05:00,45.5,6.8,29.26,SSW,210,0.0,0.0,20,0.00,,---,0.00,VWS V14.01,2013-11-18 16:05:00,
2013-11-18 10:06:00,45.9,7.1,29.26,SSW,210,0.0,0.0,20,0.00,,---,0.00,VWS V14.01,2013-11-18 16:06:00,
2013-11-18 10:08:00,45.9,7.1,29.26,SSW,210,0.0,0.0,20,0.00,,---,0.00,VWS V14.01,2013-11-18 16:08:00,
2013-11-18 10:09:00,45.9,7.1,29.26,SSW,210,0.0,0.0,20,0.00,,---,0.00,VWS V14.01,2013-11-18 16:09:00,
2013-11-18 10:10:00,45.9,7.1,29.26,SSW,200,4.0,4.0,20,0.00,,---,0.00,VWS V14.01,2013-11-18 16:10:00,
2013-11-18 10:11:00,45.9,7.1,29.26,SW,217,2.7,4.0,20,0.00,,---,0.00,VWS V14.01,2013-11-18 16:11:00,
2013-11-18 10:13:00,45.9,7.1,29.26,WSW,240,2.2,4.0,20,0.00,,---,0.00,VWS V14.01,2013-11-18 16:13:00,
2013-11-18 10:14:00,45.9,7.1,29.26,WSW,240,2.2,2.2,20,0.00,,---,0.00,VWS V14.01,2013-11-18 16:14:00,
2013-11-18 10:15:00,45.9,7.1,29.26,WSW,254,0.0,2.2,20,0.00,,---,0.00,VWS V14.01,2013-11-18 16:15:00,
2013-11-18 10:16:00,45.9,7.1,29.26,WSW,254,0.0,0.0,20,0.00,,---,0.00,VWS V14.01,2013-11-18 16:16:00,
2013-11-18 10:17:00,45.9,7.1,29.26,WSW,254,0.0,0.0,20,0.00,,---,0.00,VWS V14.01,2013-11-18 16:17:00,
2013-11-18 10:19:00,45.9,7.1,29.26,SW,221,2.7,2.7,20,0.00,,---,0.00,VWS V14.01,2013-11-18 16:19:00,
2013-11-18 10:20:00,45.9,7.1,29.26,SW,221,2.7,2.7,20,0.00,,---,0.00,VWS V14.01,2013-11-18 16:20:00,
2013-11-18 10:21:00,45.9,7.1,29.26,SW,221,2.7,2.7,20,0.00,,---,0.00,VWS V14.01,2013-11-18 16:21:00,
2013-11-18 10:22:00,45.9,7.1,29.26,SSW,193,0.0,0.0,20,0.00,,---,0.00,VWS V14.01,2013-11-18 16:22:00,
2013-11-18 10:24:00,45.9,7.1,29.26,SSW,193,0.0,0.0,20,0.00,,---,0.00,VWS V14.01,2013-11-18 16:24:00,
2013-11-18 10:25:00,45.9,7.1,29.26,SSW,193,0.0,0.0,20,0.00,,---,0.00,VWS V14.01,2013-11-18 16:25:00,
2013-11-18 10:26:00,45.9,7.1,29.26,North,350,2.7,2.7,20,0.00,,---,0.00,VWS V14.01,2013-11-18 16:26:00,
2013-11-18 10:27:00,45.9,7.1,29.26,North,350,2.7,2.7,20,0.00,,---,0.00,VWS V14.01,2013-11-18 16:27:00,
2013-11-18 10:29:00,45.9,7.1,29.26,North,0,0.0,0.0,20,0.00,,---,0.00,VWS V14.01,2013-11-18 16:29:00,
2013-11-18 10:30:00,46.9,6.8,29.26,North,0,0.0,0.0,19,0.00,,---,0.00,VWS V14.01,2013-11-18 16:30:00,
2013-11-18 10:32:00,46.9,6.8,29.26,NNW,331,0.0,0.0,19,0.00,,---,0.00,VWS V14.01,2013-11-18 16:32:00,
2013-11-18 10:35:00,47.1,7.0,29.26,NW,323,0.0,0.0,19,0.00,,---,0.00,VWS V14.01,2013-11-18 16:35:00,
2013-11-18 10:36:00,47.1,7.0,29.26,WSW,240,2.2,2.2,19,0.00,,---,0.00,VWS V14.01,2013-11-18 16:36:00,
2013-11-18 10:37:00,47.1,7.0,29.26,WSW,237,0.0,0.0,19,0.00,,---,0.00,VWS V14.01,2013-11-18 16:37:00,
2013-11-18 10:40:00,47.1,7.0,29.26,NNW,335,3.1,3.1,19,0.00,,---,0.00,VWS V14.01,2013-11-18 16:40:00,
2013-11-18 10:41:00,47.1,7.0,29.26,NNW,336,2.2,2.2,19,0.00,,---,0.00,VWS V14.01,2013-11-18 16:41:00,
2013-11-18 10:42:00,47.1,7.0,29.26,NNW,333,0.0,0.0,19,0.00,,---,0.00,VWS V14.01,2013-11-18 16:42:00,
2013-11-18 10:45:00,47.1,7.0,29.26,North,353,0.0,0.0,19,0.00,,---,0.00,VWS V14.01,2013-11-18 16:45:00,
2013-11-18 10:46:00,47.1,7.0,29.26,NNW,330,2.7,2.7,19,0.00,,---,0.00,VWS V14.01,2013-11-18 16:46:00,
2013-11-18 10:47:00,47.1,7.0,29.26,NW,323,0.0,0.0,19,0.00,,---,0.00,VWS V14.01,2013-11-18 16:47:00,
2013-11-18 10:48:00,47.1,7.0,29.26,NW,323,0.0,0.0,19,0.00,,---,0.00,VWS V14.01,2013-11-18 16:48:00,
2013-11-18 10:50:00,47.1,7.0,29.26,South,189,0.0,0.0,19,0.00,,---,0.00,VWS V14.01,2013-11-18 16:50:00,
2013-11-18 10:51:00,47.1,7.0,29.26,South,189,0.0,0.0,19,0.00,,---,0.00,VWS V14.01,2013-11-18 16:51:00,
2013-11-18 10:52:00,47.1,7.0,29.26,South,189,0.0,0.0,19,0.00,,---,0.00,VWS V14.01,2013-11-18 16:52:00,
2013-11-18 10:53:00,47.1,7.0,29.26,South,176,2.7,2.7,19,0.00,,---,0.00,VWS V14.01,2013-11-18 16:53:00,
2013-11-18 10:55:00,48.2,7.9,29.26,SSW,198,0.0,0.0,19,0.00,,---,0.00,VWS V14.01,2013-11-18 16:55:00,
2013-11-18 10:56:00,48.2,7.9,29.26,SSW,198,0.0,0.0,19,0.00,,---,0.00,VWS V14.01,2013-11-18 16:56:00,
2013-11-18 10:57:00,48.2,7.9,29.26,SSW,206,0.0,0.0,19,0.00,,---,0.00,VWS V14.01,2013-11-18 16:57:00,
2013-11-18 10:58:00,48.2,7.9,29.26,SSW,206,0.0,0.0,19,0.00,,---,0.00,VWS V14.01,2013-11-18 16:58:00,
2013-11-18 11:00:00,48.2,7.9,29.26,SW,220,0.0,0.0,19,0.00,,---,0.00,VWS V14.01,2013-11-18 17:00:00,
2013-11-18 11:01:00,48.2,7.9,29.26,SW,220,0.0,0.0,19,0.00,,---,0.00,VWS V14.01,2013-11-18 17:01:00,
2013-11-18 11:02:00,48.2,7.9,29.26,SW,228,0.0,0.0,19,0.00,,---,0.00,VWS V14.01,2013-11-18 17:02:00,
2013-11-18 11:03:00,48.6,8.2,29.26,SW,228,0.0,0.0,19,0.00,,---,0.00,VWS V14.01,2013-11-18 17:03:00,
2013-11-18 11:04:00,48.6,8.2,29.26,SW,228,0.0,0.0,19,0.00,,---,0.00,VWS V14.01,2013-11-18 17:04:00,
2013-11-18 11:05:00,48.6,8.2,29.26,SW,217,0.0,0.0,19,0.00,,---,0.00,VWS V14.01,2013-11-18 17:05:00,
2013-11-18 11:06:00,48.6,8.2,29.26,ENE,65,0.0,0.0,19,0.00,,---,0.00,VWS V14.01,2013-11-18 17:06:00,
2013-11-18 11:07:00,48.6,8.2,29.26,ENE,60,0.0,0.0,19,0.00,,---,0.00,VWS V14.01,2013-11-18 17:07:00,
2013-11-18 11:08:00,48.6,8.2,29.26,West,275,2.2,2.2,19,0.00,,---,0.00,VWS V14.01,2013-11-18 17:08:00,
2013-11-18 11:09:00,48.6,8.2,29.26,WSW,246,0.0,0.0,19,0.00,,---,0.00,VWS V14.01,2013-11-18 17:09:00,
2013-11-18 11:10:00,48.6,8.2,29.26,WSW,246,0.0,0.0,19,0.00,,---,0.00,VWS V14.01,2013-11-18 17:10:00,
2013-11-18 11:11:00,48.6,8.2,29.26,WSW,246,0.0,0.0,19,0.00,,---,0.00,VWS V14.01,2013-11-18 17:11:00,
2013-11-18 11:12:00,48.6,8.2,29.26,WSW,246,0.0,0.0,19,0.00,,---,0.00,VWS V14.01,2013-11-18 17:12:00,
2013-11-18 11:13:00,48.6,8.2,29.26,WSW,246,0.0,0.0,19,0.00,,---,0.00,VWS V14.01,2013-11-18 17:13:00,
2013-11-18 11:14:00,48.6,8.2,29.26,West,263,0.0,0.0,19,0.00,,---,0.00,VWS V14.01,2013-11-18 17:14:00,
2013-11-18 11:16:00,48.6,8.2,29.26,North,2,4.0,4.0,19,0.00,,---,0.00,VWS V14.01,2013-11-18 17:16:00,
2013-11-18 11:17:00,48.6,8.2,29.26,NNE,15,0.0,0.0,19,0.00,,---,0.00,VWS V14.01,2013-11-18 17:17:00,
2013-11-18 11:18:00,48.6,8.2,29.26,NNE,15,0.0,0.0,19,0.00,,---,0.00,VWS V14.01,2013-11-18 17:18:00,
2013-11-18 11:19:00,48.6,8.2,29.26,NNE,15,0.0,0.0,19,0.00,,---,0.00,VWS V14.01,2013-11-18 17:19:00,
2013-11-18 11:21:00,48.6,8.2,29.26,West,275,2.7,2.7,19,0.00,,---,0.00,VWS V14.01,2013-11-18 17:21:00,
2013-11-18 11:22:00,48.6,8.2,29.26,NW,318,3.6,3.6,19,0.00,,---,0.00,VWS V14.01,2013-11-18 17:22:00,
2013-11-18 11:23:00,48.6,8.2,29.26,North,0,2.2,2.2,19,0.00,,---,0.00,VWS V14.01,2013-11-18 17:23:00,
2013-11-18 11:24:00,48.6,8.2,29.26,North,0,3.1,3.1,19,0.00,,---,0.00,VWS V14.01,2013-11-18 17:24:00,
2013-11-18 11:26:00,48.6,8.2,29.26,North,0,3.1,3.1,19,0.00,,---,0.00,VWS V14.01,2013-11-18 17:26:00,
2013-11-18 11:27:00,48.6,8.2,29.26,North,0,3.1,3.1,19,0.00,,---,0.00,VWS V14.01,2013-11-18 17:27:00,
2013-11-18 11:28:00,48.6,8.2,29.26,West,271,2.2,2.2,19,0.00,,---,0.00,VWS V14.01,2013-11-18 17:28:00,
2013-11-18 11:29:00,48.6,8.2,29.26,West,276,0.0,0.0,19,0.00,,---,0.00,VWS V14.01,2013-11-18 17:29:00,
2013-11-18 11:31:00,48.6,8.2,29.26,West,271,0.0,0.0,19,0.00,,---,0.00,VWS V14.01,2013-11-18 17:31:00,
2013-11-18 11:32:00,48.6,8.2,29.26,West,271,0.0,0.0,19,0.00,,---,0.00,VWS V14.01,2013-11-18 17:32:00,
2013-11-18 11:33:00,50.2,9.5,29.26,NNE,23,0.0,0.0,19,0.00,,---,0.00,VWS V14.01,2013-11-18 17:33:00,
2013-11-18 11:34:00,50.2,9.5,29.26,NNE,23,0.0,0.0,19,0.00,,---,0.00,VWS V14.01,2013-11-18 17:34:00,
2013-11-18 11:36:00,50.2,9.5,29.26,NNW,346,4.0,4.0,19,0.00,,---,0.00,VWS V14.01,2013-11-18 17:36:00,
2013-11-18 11:37:00,50.2,9.5,29.26,NNW,346,4.0,4.0,19,0.00,,---,0.00,VWS V14.01,2013-11-18 17:37:00,
2013-11-18 11:38:00,50.2,9.5,29.26,NNE,16,0.0,4.0,19,0.00,,---,0.00,VWS V14.01,2013-11-18 17:38:00,
2013-11-18 11:39:00,50.2,9.5,29.26,West,271,0.0,0.0,19,0.00,,---,0.00,VWS V14.01,2013-11-18 17:39:00,
2013-11-18 11:40:00,50.2,9.5,29.26,West,271,0.0,0.0,19,0.00,,---,0.00,VWS V14.01,2013-11-18 17:40:00,
2013-11-18 11:41:00,50.2,9.5,29.26,NNW,332,2.2,2.2,19,0.00,,---,0.00,VWS V14.01,2013-11-18 17:41:00,
2013-11-18 11:42:00,50.2,9.5,29.26,WNW,291,2.2,2.2,19,0.00,,---,0.00,VWS V14.01,2013-11-18 17:42:00,
2013-11-18 11:43:00,50.2,9.5,29.26,WNW,291,2.2,2.2,19,0.00,,---,0.00,VWS V14.01,2013-11-18 17:43:00,
2013-11-18 11:45:00,50.7,10.0,29.26,NW,312,4.0,4.0,19,0.00,,---,0.00,VWS V14.01,2013-11-18 17:45:00,
2013-11-18 11:46:00,50.7,10.0,29.26,WNW,303,0.0,4.0,19,0.00,,---,0.00,VWS V14.01,2013-11-18 17:46:00,
2013-11-18 11:47:00,50.7,10.0,29.26,WNW,303,0.0,0.0,19,0.00,,---,0.00,VWS V14.01,2013-11-18 17:47:00,
2013-11-18 11:48:00,50.7,10.0,29.26,North,4,0.0,0.0,19,0.00,,---,0.00,VWS V14.01,2013-11-18 17:48:00,
2013-11-18 11:50:00,50.7,10.0,29.26,NNE,19,0.0,0.0,19,0.00,,---,0.00,VWS V14.01,2013-11-18 17:50:00,
2013-11-18 11:51:00,50.7,10.0,29.26,North,0,0.0,0.0,19,0.00,,---,0.00,VWS V14.01,2013-11-18 17:51:00,
2013-11-18 11:52:00,50.7,10.0,29.26,NNW,341,2.7,2.7,19,0.00,,---,0.00,VWS V14.01,2013-11-18 17:52:00,
2013-11-18 11:53:00,50.7,10.0,29.26,ESE,122,0.0,0.0,19,0.00,,---,0.00,VWS V14.01,2013-11-18 17:53:00,
2013-11-18 11:55:00,50.7,10.0,29.26,North,0,3.6,4.0,19,0.00,,---,0.00,VWS V14.01,2013-11-18 17:55:00,
2013-11-18 11:56:00,50.7,10.0,29.26,North,0,3.6,3.6,19,0.00,,---,0.00,VWS V14.01,2013-11-18 17:56:00,
2013-11-18 11:57:00,50.7,10.0,29.26,North,0,3.6,3.6,19,0.00,,---,0.00,VWS V14.01,2013-11-18 17:57:00,
2013-11-18 11:58:00,50.7,10.0,29.26,North,0,3.6,3.6,19,0.00,,---,0.00,VWS V14.01,2013-11-18 17:58:00,
2013-11-18 11:59:00,50.7,10.0,29.26,North,2,0.0,3.6,19,0.00,,---,0.00,VWS V14.01,2013-11-18 17:59:00,
2013-11-18 12:00:00,50.7,10.0,29.26,NW,326,0.0,0.0,19,0.00,,---,0.00,VWS V14.01,2013-11-18 18:00:00,
2013-11-18 12:02:00,50.7,10.0,29.26,SW,225,0.0,2.7,19,0.00,,---,0.00,VWS V14.01,2013-11-18 18:02:00,
2013-11-18 12:03:00,50.7,10.0,29.26,SW,225,0.0,0.0,19,0.00,,---,0.00,VWS V14.01,2013-11-18 18:03:00,
2013-11-18 12:04:00,51.8,9.7,29.26,SW,225,0.0,0.0,18,0.00,,---,0.00,VWS V14.01,2013-11-18 18:04:00,
2013-11-18 12:06:00,51.8,9.7,29.26,SW,227,2.7,2.7,18,0.00,,---,0.00,VWS V14.01,2013-11-18 18:06:00,
2013-11-18 12:07:00,51.8,9.7,29.26,SW,227,2.7,2.7,18,0.00,,---,0.00,VWS V14.01,2013-11-18 18:07:00,
2013-11-18 12:09:00,51.8,9.7,29.26,SSW,213,0.0,2.7,18,0.00,,---,0.00,VWS V14.01,2013-11-18 18:09:00,
2013-11-18 12:11:00,52.0,9.8,29.26,WSW,241,3.6,3.6,18,0.00,,---,0.00,VWS V14.01,2013-11-18 18:11:00,
2013-11-18 12:12:00,52.0,9.8,29.26,WSW,241,3.6,3.6,18,0.00,,---,0.00,VWS V14.01,2013-11-18 18:12:00,
2013-11-18 12:14:00,52.0,9.8,29.26,WSW,244,0.0,0.0,18,0.00,,---,0.00,VWS V14.01,2013-11-18 18:14:00,
2013-11-18 12:16:00,52.0,9.8,29.26,West,264,2.2,2.2,18,0.00,,---,0.00,VWS V14.01,2013-11-18 18:16:00,
2013-11-18 12:17:00,52.0,9.8,29.26,NNW,333,0.0,0.0,18,0.00,,---,0.00,VWS V14.01,2013-11-18 18:17:00,
2013-11-18 12:19:00,52.0,9.8,29.26,NW,318,4.0,4.0,18,0.00,,---,0.00,VWS V14.01,2013-11-18 18:19:00,
2013-11-18 12:21:00,52.0,9.8,29.26,South,182,0.0,0.0,18,0.00,,---,0.00,VWS V14.01,2013-11-18 18:21:00,
2013-11-18 12:22:00,52.0,9.8,29.26,SSW,205,0.0,0.0,18,0.00,,---,0.00,VWS V14.01,2013-11-18 18:22:00,
2013-11-18 12:24:00,52.0,9.8,29.26,SSW,205,0.0,0.0,18,0.00,,---,0.00,VWS V14.01,2013-11-18 18:24:00,
2013-11-18 12:26:00,52.0,9.8,29.26,SSW,206,2.2,2.2,18,0.00,,---,0.00,VWS V14.01,2013-11-18 18:26:00,
2013-11-18 12:27:00,52.0,9.8,29.26,SSW,202,0.0,2.2,18,0.00,,---,0.00,VWS V14.01,2013-11-18 18:27:00,
2013-11-18 12:29:00,52.0,9.8,29.26,WNW,300,4.0,4.0,18,0.00,,---,0.00,VWS V14.01,2013-11-18 18:29:00,
2013-11-18 12:32:00,52.0,9.8,29.26,NNE,12,2.7,2.7,18,0.00,,---,0.00,VWS V14.01,2013-11-18 18:32:00,
2013-11-18 12:34:00,53.2,10.9,29.23,NNW,336,4.5,4.5,18,0.00,,---,0.00,VWS V14.01,2013-11-18 18:34:00,
2013-11-18 12:37:00,53.2,10.9,29.23,West,272,3.1,3.1,18,0.00,,---,0.00,VWS V14.01,2013-11-18 18:37:00,
2013-11-18 12:40:00,53.2,10.9,29.23,SSW,192,2.2,2.7,18,0.00,,---,0.00,VWS V14.01,2013-11-18 18:40:00,
2013-11-18 12:42:00,53.2,10.9,29.23,SW,223,0.0,0.0,18,0.00,,---,0.00,VWS V14.01,2013-11-18 18:42:00,
2013-11-18 12:43:00,53.2,10.9,29.23,SW,223,0.0,0.0,18,0.00,,---,0.00,VWS V14.01,2013-11-18 18:43:00,
2013-11-18 12:45:00,53.2,10.9,29.23,SSW,201,2.7,2.7,18,0.00,,---,0.00,VWS V14.01,2013-11-18 18:45:00,
2013-11-18 12:47:00,53.2,10.9,29.23,SW,223,2.2,3.1,18,0.00,,---,0.00,VWS V14.01,2013-11-18 18:47:00,
2013-11-18 12:48:00,53.2,10.9,29.23,SW,223,2.2,2.2,18,0.00,,---,0.00,VWS V14.01,2013-11-18 18:48:00,
2013-11-18 12:50:00,53.2,10.9,29.23,South,190,4.0,4.0,18,0.00,,---,0.00,VWS V14.01,2013-11-18 18:50:00,
2013-11-18 12:52:00,53.2,10.9,29.23,South,190,4.0,4.0,18,0.00,,---,0.00,VWS V14.01,2013-11-18 18:52:00,
2013-11-18 12:53:00,53.2,10.9,29.23,SW,217,2.7,2.7,18,0.00,,---,0.00,VWS V14.01,2013-11-18 18:53:00,
2013-11-18 12:54:00,53.2,10.9,29.23,SSW,206,2.7,2.7,18,0.00,,---,0.00,VWS V14.01,2013-11-18 18:54:00,
2013-11-18 12:55:00,53.2,10.9,29.23,WSW,240,2.2,2.2,18,0.00,,---,0.00,VWS V14.01,2013-11-18 18:55:00,
2013-11-18 12:56:00,53.2,10.9,29.23,WSW,240,2.2,2.2,18,0.00,,---,0.00,VWS V14.01,2013-11-18 18:56:00,
2013-11-18 12:57:00,53.2,10.9,29.23,WSW,246,0.0,0.0,18,0.00,,---,0.00,VWS V14.01,2013-11-18 18:57:00,
2013-11-18 12:58:00,53.2,10.9,29.23,WSW,246,0.0,0.0,18,0.00,,---,0.00,VWS V14.01,2013-11-18 18:58:00,
2013-11-18 12:59:00,54.3,11.7,29.23,WSW,246,0.0,0.0,18,0.00,,---,0.00,VWS V14.01,2013-11-18 18:59:00,
2013-11-18 13:00:00,54.3,11.7,29.23,SSW,201,0.0,0.0,18,0.00,,---,0.00,VWS V14.01,2013-11-18 19:00:00,
2013-11-18 13:01:00,54.3,11.7,29.23,SSW,201,0.0,0.0,18,0.00,,---,0.00,VWS V14.01,2013-11-18 19:01:00,
2013-11-18 13:02:00,54.3,11.7,29.23,North,8,2.7,2.7,18,0.00,,---,0.00,VWS V14.01,2013-11-18 19:02:00,
2013-11-18 13:03:00,54.3,11.7,29.23,North,8,2.7,2.7,18,0.00,,---,0.00,VWS V14.01,2013-11-18 19:03:00,
2013-11-18 13:04:00,54.3,11.7,29.23,North,8,2.7,2.7,18,0.00,,---,0.00,VWS V14.01,2013-11-18 19:04:00,
2013-11-18 13:05:00,54.5,11.9,29.23,North,8,2.7,2.7,18,0.00,,---,0.00,VWS V14.01,2013-11-18 19:05:00,
2013-11-18 13:06:00,54.5,11.9,29.23,SSW,206,0.0,0.0,18,0.00,,---,0.00,VWS V14.01,2013-11-18 19:06:00,
2013-11-18 13:08:00,54.5,11.9,29.23,SSW,204,0.0,0.0,18,0.00,,---,0.00,VWS V14.01,2013-11-18 19:08:00,
2013-11-18 13:09:00,54.5,11.9,29.23,SSW,204,0.0,0.0,18,0.00,,---,0.00,VWS V14.01,2013-11-18 19:09:00,
2013-11-18 13:10:00,54.5,11.9,29.23,WSW,252,2.7,2.7,18,0.00,,---,0.00,VWS V14.01,2013-11-18 19:10:00,
2013-11-18 13:11:00,54.5,11.9,29.23,SSW,208,3.1,3.1,18,0.00,,---,0.00,VWS V14.01,2013-11-18 19:11:00,
2013-11-18 13:13:00,54.5,11.9,29.23,SSW,208,3.1,3.1,18,0.00,,---,0.00,VWS V14.01,2013-11-18 19:13:00,
2013-11-18 13:15:00,54.5,11.9,29.23,WSW,247,2.7,3.1,18,0.00,,---,0.00,VWS V14.01,2013-11-18 19:15:00,
2013-11-18 13:16:00,54.5,11.9,29.23,WSW,247,2.7,2.7,18,0.00,,---,0.00,VWS V14.01,2013-11-18 19:16:00,
2013-11-18 13:18:00,54.5,11.9,29.23,WSW,247,2.7,2.7,18,0.00,,---,0.00,VWS V14.01,2013-11-18 19:18:00,
2013-11-18 13:20:00,54.5,11.9,29.23,SSW,202,0.0,0.0,18,0.00,,---,0.00,VWS V14.01,2013-11-18 19:20:00,
2013-11-18 13:21:00,54.5,11.9,29.23,SSW,199,0.0,0.0,18,0.00,,---,0.00,VWS V14.01,2013-11-18 19:21:00,
2013-11-18 13:23:00,54.5,11.9,29.23,SSW,199,0.0,0.0,18,0.00,,---,0.00,VWS V14.01,2013-11-18 19:23:00,
2013-11-18 13:25:00,55.0,12.3,29.23,North,9,2.2,2.2,18,0.00,,---,0.00,VWS V14.01,2013-11-18 19:25:00,
2013-11-18 13:26:00,55.0,12.3,29.23,North,9,2.2,2.2,18,0.00,,---,0.00,VWS V14.01,2013-11-18 19:26:00,
2013-11-18 13:28:00,55.0,12.3,29.23,WSW,249,3.1,3.1,18,0.00,,---,0.00,VWS V14.01,2013-11-18 19:28:00,
2013-11-18 13:30:00,55.0,12.3,29.23,NW,320,5.4,5.4,18,0.00,,---,0.00,VWS V14.01,2013-11-18 19:30:00,
2013-11-18 13:31:00,55.0,12.3,29.23,WNW,300,0.0,0.0,18,0.00,,---,0.00,VWS V14.01,2013-11-18 19:31:00,
2013-11-18 13:34:00,55.0,12.3,29.23,West,262,0.0,0.0,18,0.00,,---,0.00,VWS V14.01,2013-11-18 19:34:00,
2013-11-18 13:35:00,55.2,12.5,29.23,WNW,292,0.0,0.0,18,0.00,,---,0.00,VWS V14.01,2013-11-18 19:35:00,
2013-11-18 13:36:00,55.2,12.5,29.23,WNW,292,0.0,0.0,18,0.00,,---,0.00,VWS V14.01,2013-11-18 19:36:00,
2013-11-18 13:37:00,55.2,12.5,29.23,WNW,292,0.0,0.0,18,0.00,,---,0.00,VWS V14.01,2013-11-18 19:37:00,
2013-11-18 13:39:00,55.2,12.5,29.23,SW,218,0.0,0.0,18,0.00,,---,0.00,VWS V14.01,2013-11-18 19:39:00,
2013-11-18 13:41:00,55.2,12.5,29.23,SW,218,0.0,0.0,18,0.00,,---,0.00,VWS V14.01,2013-11-18 19:41:00,
2013-11-18 13:42:00,55.2,12.5,29.23,SSW,197,2.2,2.2,18,0.00,,---,0.00,VWS V14.01,2013-11-18 19:42:00,
2013-11-18 13:44:00,55.2,12.5,29.23,SSW,197,2.2,2.2,18,0.00,,---,0.00,VWS V14.01,2013-11-18 19:44:00,
2013-11-18 13:45:00,55.2,12.5,29.23,SSW,197,2.2,2.2,18,0.00,,---,0.00,VWS V14.01,2013-11-18 19:45:00,
2013-11-18 13:46:00,55.4,11.3,29.23,SSW,197,2.2,2.2,17,0.00,,---,0.00,VWS V14.01,2013-11-18 19:46:00,
2013-11-18 13:48:00,55.4,11.3,29.23,SW,224,3.1,3.1,17,0.00,,---,0.00,VWS V14.01,2013-11-18 19:48:00,
2013-11-18 13:49:00,55.4,11.3,29.23,SW,224,3.1,3.1,17,0.00,,---,0.00,VWS V14.01,2013-11-18 19:49:00,
2013-11-18 13:50:00,55.4,11.3,29.23,SW,224,3.1,3.1,17,0.00,,---,0.00,VWS V14.01,2013-11-18 19:50:00,
2013-11-18 13:51:00,55.4,11.3,29.23,SW,224,3.1,3.1,17,0.00,,---,0.00,VWS V14.01,2013-11-18 19:51:00,
2013-11-18 13:53:00,55.4,11.3,29.23,SSW,208,0.0,0.0,17,0.00,,---,0.00,VWS V14.01,2013-11-18 19:53:00,
2013-11-18 13:54:00,55.6,11.5,29.23,SSW,208,0.0,0.0,17,0.00,,---,0.00,VWS V14.01,2013-11-18 19:54:00,
2013-11-18 13:55:00,55.6,11.5,29.23,SW,232,2.2,2.2,17,0.00,,---,0.00,VWS V14.01,2013-11-18 19:55:00,
2013-11-18 13:56:00,55.6,11.5,29.23,SW,232,2.2,2.2,17,0.00,,---,0.00,VWS V14.01,2013-11-18 19:56:00,
2013-11-18 13:58:00,55.6,11.5,29.23,SSW,208,0.0,0.0,17,0.00,,---,0.00,VWS V14.01,2013-11-18 19:58:00,
2013-11-18 13:59:00,55.6,11.5,29.23,SSW,209,0.0,0.0,17,0.00,,---,0.00,VWS V14.01,2013-11-18 19:59:00,
2013-11-18 14:00:00,55.6,11.5,29.23,SSW,209,0.0,0.0,17,0.00,,---,0.00,VWS V14.01,2013-11-18 20:00:00,
2013-11-18 14:01:00,55.6,11.5,29.23,WSW,244,0.0,2.2,17,0.00,,---,0.00,VWS V14.01,2013-11-18 20:01:00,
2013-11-18 14:03:00,55.6,11.5,29.23,WSW,244,0.0,0.0,17,0.00,,---,0.00,VWS V14.01,2013-11-18 20:03:00,
2013-11-18 14:04:00,55.8,11.6,29.23,SW,226,2.7,2.7,17,0.00,,---,0.00,VWS V14.01,2013-11-18 20:04:00,
2013-11-18 14:05:00,55.8,11.6,29.23,SW,226,2.7,2.7,17,0.00,,---,0.00,VWS V14.01,2013-11-18 20:05:00,
2013-11-18 14:06:00,55.8,11.6,29.23,SSE,165,4.9,4.9,17,0.00,,---,0.00,VWS V14.01,2013-11-18 20:06:00,
2013-11-18 14:08:00,55.8,11.6,29.23,SSW,210,4.0,4.9,17,0.00,,---,0.00,VWS V14.01,2013-11-18 20:08:00,
2013-11-18 14:09:00,55.8,11.6,29.23,WSW,241,3.1,4.0,17,0.00,,---,0.00,VWS V14.01,2013-11-18 20:09:00,
2013-11-18 14:10:00,55.8,11.6,29.23,WSW,241,3.1,4.0,17,0.00,,---,0.00,VWS V14.01,2013-11-18 20:10:00,
2013-11-18 14:11:00,55.8,11.6,29.23,WSW,241,3.1,3.1,17,0.00,,---,0.00,VWS V14.01,2013-11-18 20:11:00,
2013-11-18 14:13:00,55.9,11.8,29.23,WSW,241,3.1,3.1,17,0.00,,---,0.00,VWS V14.01,2013-11-18 20:13:00,
2013-11-18 14:14:00,55.9,11.8,29.23,WSW,251,0.0,232.4,17,0.00,,---,0.00,VWS V14.01,2013-11-18 20:14:00,
2013-11-18 14:15:00,55.9,11.8,29.23,WSW,251,0.0,232.4,17,0.00,,---,0.00,VWS V14.01,2013-11-18 20:15:00,
2013-11-18 14:16:00,55.9,11.8,29.23,WSW,251,0.0,0.0,17,0.00,,---,0.00,VWS V14.01,2013-11-18 20:16:00,
2013-11-18 14:17:00,55.9,11.8,29.23,SSW,206,0.0,0.0,17,0.00,,---,0.00,VWS V14.01,2013-11-18 20:17:00,
2013-11-18 14:18:00,55.9,11.8,29.23,South,175,0.0,0.0,17,0.00,,---,0.00,VWS V14.01,2013-11-18 20:18:00,
2013-11-18 14:19:00,55.9,11.8,29.23,South,175,0.0,0.0,17,0.00,,---,0.00,VWS V14.01,2013-11-18 20:19:00,
2013-11-18 14:20:00,55.9,11.8,29.23,South,175,0.0,0.0,17,0.00,,---,0.00,VWS V14.01,2013-11-18 20:20:00,
2013-11-18 14:22:00,55.9,11.8,29.23,NNE,30,0.0,0.0,17,0.00,,---,0.00,VWS V14.01,2013-11-18 20:22:00,
2013-11-18 14:23:00,55.9,11.8,29.23,NNE,30,0.0,0.0,17,0.00,,---,0.00,VWS V14.01,2013-11-18 20:23:00,
2013-11-18 14:25:00,55.9,11.8,29.23,SSW,192,0.0,0.0,17,0.00,,---,0.00,VWS V14.01,2013-11-18 20:25:00,
2013-11-18 14:27:00,55.9,11.8,29.23,WNW,288,0.0,0.0,17,0.00,,---,0.00,VWS V14.01,2013-11-18 20:27:00,
2013-11-18 14:28:00,55.9,11.8,29.23,NW,323,0.0,0.0,17,0.00,,---,0.00,VWS V14.01,2013-11-18 20:28:00,
2013-11-18 14:29:00,55.9,11.8,29.23,NW,323,0.0,0.0,17,0.00,,---,0.00,VWS V14.01,2013-11-18 20:29:00,
2013-11-18 14:30:00,55.9,11.8,29.23,NW,323,0.0,0.0,17,0.00,,---,0.00,VWS V14.01,2013-11-18 20:30:00,
2013-11-18 14:32:00,55.9,11.8,29.23,North,3,0.0,0.0,17,0.00,,---,0.00,VWS V14.01,2013-11-18 20:32:00,
2013-11-18 14:33:00,55.9,11.8,29.23,North,3,0.0,0.0,17,0.00,,---,0.00,VWS V14.01,2013-11-18 20:33:00,
2013-11-18 14:34:00,55.9,11.8,29.23,NNE,16,3.1,3.1,17,0.00,,---,0.00,VWS V14.01,2013-11-18 20:34:00,
2013-11-18 14:35:00,55.9,11.8,29.23,NE,38,2.2,3.1,17,0.00,,---,0.00,VWS V14.01,2013-11-18 20:35:00,
2013-11-18 14:36:00,55.9,11.8,29.23,NE,38,2.2,2.2,17,0.00,,---,0.00,VWS V14.01,2013-11-18 20:36:00,
2013-11-18 14:37:00,56.1,11.9,29.23,ESE,106,0.0,0.0,17,0.00,,---,0.00,VWS V14.01,2013-11-18 20:37:00,
2013-11-18 14:38:00,56.1,11.9,29.23,ESE,106,0.0,0.0,17,0.00,,---,0.00,VWS V14.01,2013-11-18 20:38:00,
2013-11-18 14:39:00,56.1,11.9,29.23,SW,214,2.7,2.7,17,0.00,,---,0.00,VWS V14.01,2013-11-18 20:39:00,
2013-11-18 14:40:00,56.1,11.9,29.23,SW,214,2.7,2.7,17,0.00,,---,0.00,VWS V14.01,2013-11-18 20:40:00,
2013-11-18 14:41:00,56.1,11.9,29.23,South,172,2.7,2.7,17,0.00,,---,0.00,VWS V14.01,2013-11-18 20:41:00,
2013-11-18 14:42:00,56.1,11.9,29.23,SW,226,0.0,2.7,17,0.00,,---,0.00,VWS V14.01,2013-11-18 20:42:00,
2013-11-18 14:43:00,56.1,11.9,29.23,SW,226,0.0,0.0,17,0.00,,---,0.00,VWS V14.01,2013-11-18 20:43:00,
2013-11-18 14:45:00,56.1,11.9,29.23,West,264,2.7,2.7,17,0.00,,---,0.00,VWS V14.01,2013-11-18 20:45:00,
2013-11-18 14:46:00,56.1,11.9,29.21,SW,214,0.0,0.0,17,0.00,,---,0.00,VWS V14.01,2013-11-18 20:46:00,
2013-11-18 14:47:00,56.1,11.9,29.21,SW,214,0.0,0.0,17,0.00,,---,0.00,VWS V14.01,2013-11-18 20:47:00,
2013-11-18 14:48:00,56.1,11.9,29.21,North,0,2.7,2.7,17,0.00,,---,0.00,VWS V14.01,2013-11-18 20:48:00,
2013-11-18 14:49:00,56.3,12.1,29.21,North,0,2.7,2.7,17,0.00,,---,0.00,VWS V14.01,2013-11-18 20:49:00,
2013-11-18 14:50:00,56.3,12.1,29.21,North,0,2.7,2.7,17,0.00,,---,0.00,VWS V14.01,2013-11-18 20:50:00,
2013-11-18 14:51:00,56.3,12.1,29.21,North,0,2.7,2.7,17,0.00,,---,0.00,VWS V14.01,2013-11-18 20:51:00,
2013-11-18 14:52:00,56.3,12.1,29.21,North,357,0.0,0.0,17,0.00,,---,0.00,VWS V14.01,2013-11-18 20:52:00,
2013-11-18 14:53:00,56.3,12.1,29.21,North,357,0.0,0.0,17,0.00,,---,0.00,VWS V14.01,2013-11-18 20:53:00,
2013-11-18 14:55:00,56.3,12.1,29.21,North,10,3.1,3.1,17,0.00,,---,0.00,VWS V14.01,2013-11-18 20:55:00,
2013-11-18 14:56:00,56.3,12.1,29.21,North,10,3.1,3.1,17,0.00,,---,0.00,VWS V14.01,2013-11-18 20:56:00,
2013-11-18 14:57:00,56.3,12.1,29.21,WNW,288,0.0,0.0,17,0.00,,---,0.00,VWS V14.01,2013-11-18 20:57:00,
2013-11-18 14:58:00,56.3,12.1,29.21,WNW,288,0.0,0.0,17,0.00,,---,0.00,VWS V14.01,2013-11-18 20:58:00,
2013-11-18 14:59:00,56.3,12.1,29.21,WNW,288,0.0,0.0,17,0.00,,---,0.00,VWS V14.01,2013-11-18 20:59:00,
2013-11-18 15:00:00,56.3,12.1,29.21,WNW,288,0.0,0.0,17,0.00,,---,0.00,VWS V14.01,2013-11-18 21:00:00,
2013-11-18 15:02:00,56.3,12.1,29.21,WNW,288,0.0,0.0,17,0.00,,---,0.00,VWS V14.01,2013-11-18 21:02:00,
2013-11-18 15:03:00,56.3,12.1,29.21,WNW,288,0.0,0.0,17,0.00,,---,0.00,VWS V14.01,2013-11-18 21:03:00,
2013-11-18 15:04:00,56.3,12.1,29.21,North,2,3.6,3.6,17,0.00,,---,0.00,VWS V14.01,2013-11-18 21:04:00,
2013-11-18 15:05:00,56.3,12.1,29.21,North,2,3.6,3.6,17,0.00,,---,0.00,VWS V14.01,2013-11-18 21:05:00,
2013-11-18 15:07:00,56.3,12.1,29.21,North,2,3.6,3.6,17,0.00,,---,0.00,VWS V14.01,2013-11-18 21:07:00,
2013-11-18 15:08:00,56.3,12.1,29.21,NNW,345,0.0,0.0,17,0.00,,---,0.00,VWS V14.01,2013-11-18 21:08:00,
2013-11-18 15:09:00,56.3,12.1,29.21,NNW,345,0.0,0.0,17,0.00,,---,0.00,VWS V14.01,2013-11-18 21:09:00,
2013-11-18 15:10:00,56.3,12.1,29.21,North,353,0.0,2.2,17,0.00,,---,0.00,VWS V14.01,2013-11-18 21:10:00,
2013-11-18 15:11:00,56.3,12.1,29.21,North,353,0.0,0.0,17,0.00,,---,0.00,VWS V14.01,2013-11-18 21:11:00,
2013-11-18 15:12:00,56.3,12.1,29.21,NW,316,3.6,3.6,17,0.00,,---,0.00,VWS V14.01,2013-11-18 21:12:00,
2013-11-18 15:13:00,56.3,12.1,29.21,NNW,345,3.1,3.1,17,0.00,,---,0.00,VWS V14.01,2013-11-18 21:13:00,
2013-11-18 15:14:00,56.3,12.1,29.21,WNW,296,0.0,3.1,17,0.00,,---,0.00,VWS V14.01,2013-11-18 21:14:00,
2013-11-18 15:15:00,56.3,12.1,29.21,WNW,296,0.0,0.0,17,0.00,,---,0.00,VWS V14.01,2013-11-18 21:15:00,
2013-11-18 15:16:00,56.3,12.1,29.21,WNW,296,0.0,0.0,17,0.00,,---,0.00,VWS V14.01,2013-11-18 21:16:00,
2013-11-18 15:17:00,56.3,12.1,29.21,WNW,296,0.0,0.0,17,0.00,,---,0.00,VWS V14.01,2013-11-18 21:17:00,
2013-11-18 15:18:00,56.3,12.1,29.21,WNW,296,0.0,0.0,17,0.00,,---,0.00,VWS V14.01,2013-11-18 21:18:00,
2013-11-18 15:20:00,56.3,12.1,29.21,North,0,2.2,2.2,17,0.00,,---,0.00,VWS V14.01,2013-11-18 21:20:00,
2013-11-18 15:21:00,56.3,12.1,29.21,North,2,3.6,3.6,17,0.00,,---,0.00,VWS V14.01,2013-11-18 21:21:00,
2013-11-18 15:22:00,56.3,12.1,29.21,NNW,337,2.7,3.6,17,0.00,,---,0.00,VWS V14.01,2013-11-18 21:22:00,
2013-11-18 15:23:00,56.3,12.1,29.21,NNW,337,2.7,2.7,17,0.00,,---,0.00,VWS V14.01,2013-11-18 21:23:00,
2013-11-18 15:25:00,56.3,12.1,29.21,North,353,0.0,0.0,17,0.00,,---,0.00,VWS V14.01,2013-11-18 21:25:00,
2013-11-18 15:26:00,56.3,12.1,29.21,North,353,0.0,0.0,17,0.00,,---,0.00,VWS V14.01,2013-11-18 21:26:00,
2013-11-18 15:28:00,56.3,12.1,29.21,North,6,0.0,0.0,17,0.00,,---,0.00,VWS V14.01,2013-11-18 21:28:00,
2013-11-18 15:30:00,56.3,12.1,29.21,North,6,0.0,0.0,17,0.00,,---,0.00,VWS V14.01,2013-11-18 21:30:00,
2013-11-18 15:31:00,56.3,12.1,29.21,NW,321,0.0,0.0,17,0.00,,---,0.00,VWS V14.01,2013-11-18 21:31:00,
2013-11-18 15:32:00,56.3,12.1,29.21,NW,321,0.0,0.0,17,0.00,,---,0.00,VWS V14.01,2013-11-18 21:32:00,
2013-11-18 15:33:00,56.3,12.1,29.21,NW,321,0.0,0.0,17,0.00,,---,0.00,VWS V14.01,2013-11-18 21:33:00,
2013-11-18 15:35:00,56.1,11.9,29.21,WNW,296,4.5,4.5,17,0.00,,---,0.00,VWS V14.01,2013-11-18 21:35:00,
2013-11-18 15:36:00,56.1,11.9,29.21,WNW,296,4.5,4.5,17,0.00,,---,0.00,VWS V14.01,2013-11-18 21:36:00,
2013-11-18 15:37:00,56.1,11.9,29.21,NNW,346,2.2,3.1,17,0.00,,---,0.00,VWS V14.01,2013-11-18 21:37:00,
2013-11-18 15:38:00,56.1,11.9,29.21,NNW,346,2.2,2.2,17,0.00,,---,0.00,VWS V14.01,2013-11-18 21:38:00,
2013-11-18 15:39:00,56.1,11.9,29.21,NNW,346,2.2,2.2,17,0.00,,---,0.00,VWS V14.01,2013-11-18 21:39:00,
2013-11-18 15:40:00,56.1,11.9,29.21,NNW,340,0.0,2.2,17,0.00,,---,0.00,VWS V14.01,2013-11-18 21:40:00,
2013-11-18 15:41:00,56.1,11.9,29.21,South,177,2.2,2.2,17,0.00,,---,0.00,VWS V14.01,2013-11-18 21:41:00,
2013-11-18 15:42:00,56.1,11.9,29.21,South,177,0.0,2.2,17,0.00,,---,0.00,VWS V14.01,2013-11-18 21:42:00,
2013-11-18 15:43:00,56.1,11.9,29.21,South,177,0.0,0.0,17,0.00,,---,0.00,VWS V14.01,2013-11-18 21:43:00,
2013-11-18 15:44:00,56.1,11.9,29.21,South,177,0.0,0.0,17,0.00,,---,0.00,VWS V14.01,2013-11-18 21:44:00,
2013-11-18 15:45:00,56.1,11.9,29.21,South,177,0.0,0.0,17,0.00,,---,0.00,VWS V14.01,2013-11-18 21:45:00,
2013-11-18 15:47:00,56.1,11.9,29.21,SW,227,0.0,0.0,17,0.00,,---,0.00,VWS V14.01,2013-11-18 21:47:00,
2013-11-18 15:48:00,56.1,11.9,29.21,NNW,335,0.0,0.0,17,0.00,,---,0.00,VWS V14.01,2013-11-18 21:48:00,
2013-11-18 15:49:00,56.1,11.9,29.21,NNW,348,3.6,3.6,17,0.00,,---,0.00,VWS V14.01,2013-11-18 21:49:00,
2013-11-18 15:50:00,56.1,11.9,29.21,NW,321,2.7,3.6,17,0.00,,---,0.00,VWS V14.01,2013-11-18 21:50:00,
2013-11-18 15:52:00,55.9,11.8,29.21,NW,321,2.7,2.7,17,0.00,,---,0.00,VWS V14.01,2013-11-18 21:52:00,
2013-11-18 15:53:00,55.9,11.8,29.21,NW,321,2.7,2.7,17,0.00,,---,0.00,VWS V14.01,2013-11-18 21:53:00,
2013-11-18 15:55:00,55.9,11.8,29.21,NNW,346,0.0,0.0,17,0.00,,---,0.00,VWS V14.01,2013-11-18 21:55:00,
2013-11-18 15:57:00,55.9,11.8,29.21,NNW,346,0.0,0.0,17,0.00,,---,0.00,VWS V14.01,2013-11-18 21:57:00,
2013-11-18 15:58:00,55.9,11.8,29.21,NNW,346,0.0,0.0,17,0.00,,---,0.00,VWS V14.01,2013-11-18 21:58:00,
2013-11-18 15:59:00,55.9,11.8,29.21,NNW,346,0.0,0.0,17,0.00,,---,0.00,VWS V14.01,2013-11-18 21:59:00,
2013-11-18 16:00:00,55.9,11.8,29.21,NNW,346,0.0,0.0,17,0.00,,---,0.00,VWS V14.01,2013-11-18 22:00:00,
2013-11-18 16:02:00,55.8,11.6,29.21,NNW,346,0.0,0.0,17,0.00,,---,0.00,VWS V14.01,2013-11-18 22:02:00,
2013-11-18 16:03:00,55.8,11.6,29.21,NNW,346,0.0,0.0,17,0.00,,---,0.00,VWS V14.01,2013-11-18 22:03:00,
2013-11-18 16:04:00,55.8,11.6,29.21,NNW,346,0.0,0.0,17,0.00,,---,0.00,VWS V14.01,2013-11-18 22:04:00,
2013-11-18 16:05:00,55.8,11.6,29.21,NNW,346,0.0,0.0,17,0.00,,---,0.00,VWS V14.01,2013-11-18 22:05:00,
2013-11-18 16:06:00,55.8,11.6,29.21,NNW,346,0.0,0.0,17,0.00,,---,0.00,VWS V14.01,2013-11-18 22:06:00,
2013-11-18 16:08:00,55.8,11.6,29.21,NNW,346,0.0,0.0,17,0.00,,---,0.00,VWS V14.01,2013-11-18 22:08:00,
2013-11-18 16:09:00,55.8,11.6,29.21,NNW,346,0.0,0.0,17,0.00,,---,0.00,VWS V14.01,2013-11-18 22:09:00,
2013-11-18 16:10:00,55.8,11.6,29.21,NNW,346,0.0,0.0,17,0.00,,---,0.00,VWS V14.01,2013-11-18 22:10:00,
2013-11-18 16:11:00,55.6,11.5,29.21,NNW,346,0.0,0.0,17,0.00,,---,0.00,VWS V14.01,2013-11-18 22:11:00,
2013-11-18 16:13:00,55.6,11.5,29.21,NNW,346,0.0,0.0,17,0.00,,---,0.00,VWS V14.01,2013-11-18 22:13:00,
2013-11-18 16:14:00,55.6,11.5,29.21,NNW,346,0.0,0.0,17,0.00,,---,0.00,VWS V14.01,2013-11-18 22:14:00,
2013-11-18 16:15:00,55.6,11.5,29.21,NNW,346,0.0,0.0,17,0.00,,---,0.00,VWS V14.01,2013-11-18 22:15:00,
2013-11-18 16:16:00,55.4,11.3,29.21,NNW,346,0.0,0.0,17,0.00,,---,0.00,VWS V14.01,2013-11-18 22:16:00,
2013-11-18 16:18:00,55.4,11.3,29.21,NNW,346,0.0,0.0,17,0.00,,---,0.00,VWS V14.01,2013-11-18 22:18:00,
2013-11-18 16:19:00,55.4,11.3,29.21,NNW,346,0.0,0.0,17,0.00,,---,0.00,VWS V14.01,2013-11-18 22:19:00,
2013-11-18 16:20:00,55.4,11.3,29.21,NNW,346,0.0,0.0,17,0.00,,---,0.00,VWS V14.01,2013-11-18 22:20:00,
2013-11-18 16:21:00,55.4,11.3,29.21,NNW,346,0.0,0.0,17,0.00,,---,0.00,VWS V14.01,2013-11-18 22:21:00,
2013-11-18 16:24:00,55.4,11.3,29.21,NNW,346,0.0,0.0,17,0.00,,---,0.00,VWS V14.01,2013-11-18 22:24:00,
2013-11-18 16:25:00,55.4,11.3,29.21,NNW,346,0.0,0.0,17,0.00,,---,0.00,VWS V14.01,2013-11-18 22:25:00,
2013-11-18 16:26:00,55.4,11.3,29.21,NNW,346,0.0,0.0,17,0.00,,---,0.00,VWS V14.01,2013-11-18 22:26:00,
2013-11-18 16:29:00,55.0,12.3,29.21,NNW,346,0.0,0.0,18,0.00,,---,0.00,VWS V14.01,2013-11-18 22:29:00,
2013-11-18 16:30:00,55.0,12.3,29.21,NNW,346,0.0,0.0,18,0.00,,---,0.00,VWS V14.01,2013-11-18 22:30:00,
2013-11-18 16:31:00,55.0,12.3,29.21,NNW,346,0.0,0.0,18,0.00,,---,0.00,VWS V14.01,2013-11-18 22:31:00,
2013-11-18 16:32:00,55.0,12.3,29.21,NNW,346,0.0,0.0,18,0.00,,---,0.00,VWS V14.01,2013-11-18 22:32:00,
2013-11-18 16:34:00,55.0,12.3,29.21,NNW,346,0.0,0.0,18,0.00,,---,0.00,VWS V14.01,2013-11-18 22:34:00,
2013-11-18 16:35:00,55.0,12.3,29.21,NNW,346,0.0,0.0,18,0.00,,---,0.00,VWS V14.01,2013-11-18 22:35:00,
2013-11-18 16:36:00,55.0,12.3,29.21,NNW,346,0.0,0.0,18,0.00,,---,0.00,VWS V14.01,2013-11-18 22:36:00,
2013-11-18 16:37:00,55.0,12.3,29.21,NNW,346,0.0,0.0,18,0.00,,---,0.00,VWS V14.01,2013-11-18 22:37:00,
2013-11-18 16:39:00,54.7,12.0,29.21,NNW,346,0.0,0.0,18,0.00,,---,0.00,VWS V14.01,2013-11-18 22:39:00,
2013-11-18 16:40:00,54.7,12.0,29.21,NNW,346,0.0,0.0,18,0.00,,---,0.00,VWS V14.01,2013-11-18 22:40:00,
2013-11-18 16:41:00,54.5,11.9,29.21,NNW,346,0.0,0.0,18,0.00,,---,0.00,VWS V14.01,2013-11-18 22:41:00,
2013-11-18 16:42:00,54.5,11.9,29.21,NNW,346,0.0,0.0,18,0.00,,---,0.00,VWS V14.01,2013-11-18 22:42:00,
2013-11-18 16:44:00,54.5,11.9,29.21,NNW,346,0.0,0.0,18,0.00,,---,0.00,VWS V14.01,2013-11-18 22:44:00,
2013-11-18 16:45:00,54.5,11.9,29.21,NNW,346,0.0,0.0,18,0.00,,---,0.00,VWS V14.01,2013-11-18 22:45:00,
2013-11-18 16:46:00,54.5,11.9,29.21,NNW,346,0.0,0.0,18,0.00,,---,0.00,VWS V14.01,2013-11-18 22:46:00,
2013-11-18 16:47:00,54.5,11.9,29.21,NNW,346,0.0,0.0,18,0.00,,---,0.00,VWS V14.01,2013-11-18 22:47:00,
2013-11-18 16:49:00,54.3,11.7,29.21,NNW,346,0.0,0.0,18,0.00,,---,0.00,VWS V14.01,2013-11-18 22:49:00,
2013-11-18 16:50:00,54.3,11.7,29.21,NNW,346,0.0,0.0,18,0.00,,---,0.00,VWS V14.01,2013-11-18 22:50:00,
2013-11-18 16:51:00,54.3,11.7,29.21,NNW,346,0.0,0.0,18,0.00,,---,0.00,VWS V14.01,2013-11-18 22:51:00,
2013-11-18 16:52:00,54.3,11.7,29.21,NNW,346,0.0,0.0,18,0.00,,---,0.00,VWS V14.01,2013-11-18 22:52:00,
2013-11-18 16:54:00,54.3,11.7,29.21,NNW,346,0.0,0.0,18,0.00,,---,0.00,VWS V14.01,2013-11-18 22:54:00,
2013-11-18 16:55:00,54.3,11.7,29.21,NNW,346,0.0,0.0,18,0.00,,---,0.00,VWS V14.01,2013-11-18 22:55:00,
2013-11-18 16:56:00,54.0,11.4,29.21,NNW,346,0.0,0.0,18,0.00,,---,0.00,VWS V14.01,2013-11-18 22:56:00,
2013-11-18 16:57:00,54.0,11.4,29.21,NNW,346,0.0,0.0,18,0.00,,---,0.00,VWS V14.01,2013-11-18 22:57:00,
2013-11-18 16:59:00,54.0,11.4,29.21,NNW,346,0.0,0.0,18,0.00,,---,0.00,VWS V14.01,2013-11-18 22:59:00,
2013-11-18 17:00:00,54.0,11.4,29.21,NNW,346,0.0,0.0,18,0.00,,---,0.00,VWS V14.01,2013-11-18 23:00:00,
2013-11-18 17:01:00,54.0,11.4,29.21,NNW,346,0.0,0.0,18,0.00,,---,0.00,VWS V14.01,2013-11-18 23:01:00,
2013-11-18 17:02:00,54.0,11.4,29.21,NNW,346,0.0,0.0,18,0.00,,---,0.00,VWS V14.01,2013-11-18 23:02:00,
2013-11-18 17:04:00,54.0,11.4,29.21,NNW,346,0.0,0.0,18,0.00,,---,0.00,VWS V14.01,2013-11-18 23:04:00,
2013-11-18 17:05:00,53.4,11.0,29.21,NNW,346,0.0,0.0,18,0.00,,---,0.00,VWS V14.01,2013-11-18 23:05:00,
2013-11-18 17:06:00,53.4,11.0,29.21,NNW,346,0.0,0.0,18,0.00,,---,0.00,VWS V14.01,2013-11-18 23:06:00,
2013-11-18 17:07:00,53.4,11.0,29.21,NNW,346,0.0,0.0,18,0.00,,---,0.00,VWS V14.01,2013-11-18 23:07:00,
2013-11-18 17:10:00,53.4,11.0,29.21,NNW,344,0.0,0.0,18,0.00,,---,0.00,VWS V14.01,2013-11-18 23:10:00,
2013-11-18 17:11:00,53.4,11.0,29.21,NNW,344,0.0,0.0,18,0.00,,---,0.00,VWS V14.01,2013-11-18 23:11:00,
2013-11-18 17:12:00,53.4,11.0,29.21,NNW,344,0.0,0.0,18,0.00,,---,0.00,VWS V14.01,2013-11-18 23:12:00,
2013-11-18 17:15:00,52.9,10.6,29.21,NNW,344,0.0,0.0,18,0.00,,---,0.00,VWS V14.01,2013-11-18 23:15:00,
2013-11-18 17:16:00,52.9,10.6,29.21,NNW,344,0.0,0.0,18,0.00,,---,0.00,VWS V14.01,2013-11-18 23:16:00,
2013-11-18 17:17:00,52.9,10.6,29.21,NNW,344,0.0,0.0,18,0.00,,---,0.00,VWS V14.01,2013-11-18 23:17:00,
2013-11-18 17:20:00,52.9,10.6,29.21,NNW,344,0.0,0.0,18,0.00,,---,0.00,VWS V14.01,2013-11-18 23:20:00,
2013-11-18 17:21:00,52.9,10.6,29.21,NNW,344,0.0,0.0,18,0.00,,---,0.00,VWS V14.01,2013-11-18 23:21:00,
2013-11-18 17:22:00,52.9,10.6,29.21,NNW,344,0.0,0.0,18,0.00,,---,0.00,VWS V14.01,2013-11-18 23:22:00,
2013-11-18 17:23:00,52.9,10.6,29.21,NNW,344,0.0,0.0,18,0.00,,---,0.00,VWS V14.01,2013-11-18 23:23:00,
2013-11-18 17:25:00,52.2,10.0,29.21,NNW,344,0.0,0.0,18,0.00,,---,0.00,VWS V14.01,2013-11-18 23:25:00,
2013-11-18 17:26:00,52.2,10.0,29.21,NNW,344,0.0,0.0,18,0.00,,---,0.00,VWS V14.01,2013-11-18 23:26:00,
2013-11-18 17:27:00,52.2,10.0,29.21,NNW,344,0.0,0.0,18,0.00,,---,0.00,VWS V14.01,2013-11-18 23:27:00,
2013-11-18 17:28:00,52.2,10.0,29.21,NNW,344,0.0,0.0,18,0.00,,---,0.00,VWS V14.01,2013-11-18 23:28:00,
2013-11-18 17:30:00,52.2,10.0,29.21,NNW,344,0.0,0.0,18,0.00,,---,0.00,VWS V14.01,2013-11-18 23:30:00,
2013-11-18 17:31:00,52.2,10.0,29.21,NNW,344,0.0,0.0,18,0.00,,---,0.00,VWS V14.01,2013-11-18 23:31:00,
2013-11-18 17:32:00,52.2,10.0,29.21,NNW,344,0.0,0.0,18,0.00,,---,0.00,VWS V14.01,2013-11-18 23:32:00,
2013-11-18 17:33:00,51.6,10.7,29.21,NNW,344,0.0,0.0,19,0.00,,---,0.00,VWS V14.01,2013-11-18 23:33:00,
2013-11-18 17:35:00,51.6,10.7,29.21,NNW,344,0.0,0.0,19,0.00,,---,0.00,VWS V14.01,2013-11-18 23:35:00,
2013-11-18 17:36:00,51.6,10.7,29.21,NNW,344,0.0,0.0,19,0.00,,---,0.00,VWS V14.01,2013-11-18 23:36:00,
2013-11-18 17:37:00,51.6,10.7,29.21,NNW,344,0.0,0.0,19,0.00,,---,0.00,VWS V14.01,2013-11-18 23:37:00,
2013-11-18 17:38:00,51.6,10.7,29.21,NNW,344,0.0,0.0,19,0.00,,---,0.00,VWS V14.01,2013-11-18 23:38:00,
2013-11-18 17:39:00,51.6,10.7,29.21,NNW,344,0.0,0.0,19,0.00,,---,0.00,VWS V14.01,2013-11-18 23:39:00,
2013-11-18 17:40:00,51.6,10.7,29.21,NNW,344,0.0,0.0,19,0.00,,---,0.00,VWS V14.01,2013-11-18 23:40:00,
2013-11-18 17:41:00,51.6,10.7,29.21,NNW,344,0.0,0.0,19,0.00,,---,0.00,VWS V14.01,2013-11-18 23:41:00,
2013-11-18 17:42:00,51.1,10.3,29.21,NNW,344,0.0,0.0,19,0.00,,---,0.00,VWS V14.01,2013-11-18 23:42:00,
2013-11-18 17:43:00,51.1,10.3,29.21,NNW,344,0.0,0.0,19,0.00,,---,0.00,VWS V14.01,2013-11-18 23:43:00,
2013-11-18 17:44:00,51.1,10.3,29.21,NNW,344,0.0,0.0,19,0.00,,---,0.00,VWS V14.01,2013-11-18 23:44:00,
2013-11-18 17:46:00,51.1,10.3,29.21,NNW,344,0.0,0.0,19,0.00,,---,0.00,VWS V14.01,2013-11-18 23:46:00,
2013-11-18 17:47:00,51.1,10.3,29.21,NNW,344,0.0,0.0,19,0.00,,---,0.00,VWS V14.01,2013-11-18 23:47:00,
2013-11-18 17:48:00,51.1,10.3,29.21,NNW,344,0.0,0.0,19,0.00,,---,0.00,VWS V14.01,2013-11-18 23:48:00,
2013-11-18 17:49:00,51.1,10.3,29.21,NNW,344,0.0,0.0,19,0.00,,---,0.00,VWS V14.01,2013-11-18 23:49:00,
2013-11-18 17:51:00,51.1,10.3,29.21,NNW,344,0.0,0.0,19,0.00,,---,0.00,VWS V14.01,2013-11-18 23:51:00,
2013-11-18 17:52:00,50.5,9.8,29.21,NNW,344,0.0,0.0,19,0.00,,---,0.00,VWS V14.01,2013-11-18 23:52:00,
2013-11-18 17:54:00,50.5,9.8,29.21,NNW,344,0.0,0.0,19,0.00,,---,0.00,VWS V14.01,2013-11-18 23:54:00,
2013-11-18 17:55:00,50.5,9.8,29.21,NNW,344,0.0,0.0,19,0.00,,---,0.00,VWS V14.01,2013-11-18 23:55:00,
2013-11-18 17:56:00,50.5,9.8,29.21,NNW,344,0.0,0.0,19,0.00,,---,0.00,VWS V14.01,2013-11-18 23:56:00,
2013-11-18 17:57:00,50.5,9.8,29.21,NNW,344,0.0,0.0,19,0.00,,---,0.00,VWS V14.01,2013-11-18 23:57:00,
2013-11-18 17:59:00,50.5,9.8,29.21,NNW,344,0.0,0.0,19,0.00,,---,0.00,VWS V14.01,2013-11-18 23:59:00,
2013-11-18 18:00:00,50.0,9.4,29.21,NNW,344,0.0,0.0,19,0.00,,---,0.00,VWS V14.01,2013-11-19 00:00:00,
2013-11-18 18:01:00,50.0,9.4,29.21,NNW,344,0.0,0.0,19,0.00,,---,0.00,VWS V14.01,2013-11-19 00:01:00,
2013-11-18 18:02:00,50.0,9.4,29.21,NNW,344,0.0,0.0,19,0.00,,---,0.00,VWS V14.01,2013-11-19 00:02:00,
2013-11-18 18:04:00,50.0,9.4,29.21,NNW,344,0.0,0.0,19,0.00,,---,0.00,VWS V14.01,2013-11-19 00:04:00,
2013-11-18 18:05:00,50.0,9.4,29.21,NNW,344,0.0,0.0,19,0.00,,---,0.00,VWS V14.01,2013-11-19 00:05:00,
2013-11-18 18:06:00,50.0,9.4,29.21,NNW,344,0.0,0.0,19,0.00,,---,0.00,VWS V14.01,2013-11-19 00:06:00,
2013-11-18 18:07:00,50.0,9.4,29.21,NNW,344,0.0,0.0,19,0.00,,---,0.00,VWS V14.01,2013-11-19 00:07:00,
2013-11-18 18:08:00,50.0,9.4,29.21,NNW,344,0.0,0.0,19,0.00,,---,0.00,VWS V14.01,2013-11-19 00:08:00,
2013-11-18 18:09:00,50.0,9.4,29.21,NNW,344,0.0,0.0,19,0.00,,---,0.00,VWS V14.01,2013-11-19 00:09:00,
2013-11-18 18:10:00,49.6,9.1,29.21,NNW,344,0.0,0.0,19,0.00,,---,0.00,VWS V14.01,2013-11-19 00:10:00,
2013-11-18 18:11:00,49.6,9.1,29.21,NNW,344,0.0,0.0,19,0.00,,---,0.00,VWS V14.01,2013-11-19 00:11:00,
2013-11-18 18:13:00,49.6,9.1,29.21,NNW,344,0.0,0.0,19,0.00,,---,0.00,VWS V14.01,2013-11-19 00:13:00,
2013-11-18 18:14:00,49.6,9.1,29.21,NNW,344,0.0,0.0,19,0.00,,---,0.00,VWS V14.01,2013-11-19 00:14:00,
2013-11-18 18:16:00,49.6,9.1,29.21,NNW,344,0.0,0.0,19,0.00,,---,0.00,VWS V14.01,2013-11-19 00:16:00,
2013-11-18 18:18:00,49.6,9.1,29.21,NNW,344,0.0,0.0,19,0.00,,---,0.00,VWS V14.01,2013-11-19 00:18:00,
2013-11-18 18:19:00,49.1,8.6,29.21,NNW,344,0.0,0.0,19,0.00,,---,0.00,VWS V14.01,2013-11-19 00:19:00,
2013-11-18 18:21:00,49.1,8.6,29.21,NNW,344,0.0,0.0,19,0.00,,---,0.00,VWS V14.01,2013-11-19 00:21:00,
2013-11-18 18:23:00,49.1,8.6,29.21,NNW,344,0.0,0.0,19,0.00,,---,0.00,VWS V14.01,2013-11-19 00:23:00,
2013-11-18 18:24:00,49.1,8.6,29.21,NNW,344,0.0,0.0,19,0.00,,---,0.00,VWS V14.01,2013-11-19 00:24:00,
2013-11-18 18:25:00,49.1,8.6,29.21,NNW,344,0.0,0.0,19,0.00,,---,0.00,VWS V14.01,2013-11-19 00:25:00,
2013-11-18 18:26:00,49.1,8.6,29.21,NNW,344,0.0,0.0,19,0.00,,---,0.00,VWS V14.01,2013-11-19 00:26:00,
2013-11-18 18:28:00,48.7,8.3,29.21,NNW,344,0.0,0.0,19,0.00,,---,0.00,VWS V14.01,2013-11-19 00:28:00,
2013-11-18 18:30:00,48.7,8.3,29.21,NNW,344,0.0,0.0,19,0.00,,---,0.00,VWS V14.01,2013-11-19 00:30:00,
2013-11-18 18:31:00,48.7,8.3,29.21,NNW,344,0.0,0.0,19,0.00,,---,0.00,VWS V14.01,2013-11-19 00:31:00,
2013-11-18 18:33:00,48.7,8.3,29.23,NNW,344,0.0,0.0,19,0.00,,---,0.00,VWS V14.01,2013-11-19 00:33:00,
2013-11-18 18:35:00,48.7,8.3,29.23,NNW,344,0.0,0.0,19,0.00,,---,0.00,VWS V14.01,2013-11-19 00:35:00,
2013-11-18 18:37:00,48.2,7.9,29.23,NNW,344,0.0,0.0,19,0.00,,---,0.00,VWS V14.01,2013-11-19 00:37:00,
2013-11-18 18:38:00,48.2,7.9,29.23,NNW,344,0.0,0.0,19,0.00,,---,0.00,VWS V14.01,2013-11-19 00:38:00,
2013-11-18 18:40:00,48.2,7.9,29.23,NNW,344,0.0,0.0,19,0.00,,---,0.00,VWS V14.01,2013-11-19 00:40:00,
2013-11-18 18:42:00,48.2,7.9,29.23,NNW,344,0.0,0.0,19,0.00,,---,0.00,VWS V14.01,2013-11-19 00:42:00,
2013-11-18 18:43:00,48.2,7.9,29.23,NNW,344,0.0,0.0,19,0.00,,---,0.00,VWS V14.01,2013-11-19 00:43:00,
2013-11-18 18:45:00,48.2,7.9,29.23,NNW,344,0.0,0.0,19,0.00,,---,0.00,VWS V14.01,2013-11-19 00:45:00,
2013-11-18 18:47:00,47.7,7.4,29.23,NNW,344,0.0,0.0,19,0.00,,---,0.00,VWS V14.01,2013-11-19 00:47:00,
2013-11-18 18:48:00,47.7,7.4,29.23,NNW,344,0.0,0.0,19,0.00,,---,0.00,VWS V14.01,2013-11-19 00:48:00,
2013-11-18 18:50:00,47.7,7.4,29.23,NNW,344,0.0,0.0,19,0.00,,---,0.00,VWS V14.01,2013-11-19 00:50:00,
2013-11-18 18:51:00,47.7,7.4,29.23,NNW,344,0.0,0.0,19,0.00,,---,0.00,VWS V14.01,2013-11-19 00:51:00,
2013-11-18 18:52:00,47.7,7.4,29.23,NNW,344,0.0,0.0,19,0.00,,---,0.00,VWS V14.01,2013-11-19 00:52:00,
2013-11-18 18:53:00,47.7,7.4,29.23,NNW,344,0.0,0.0,19,0.00,,---,0.00,VWS V14.01,2013-11-19 00:53:00,
2013-11-18 18:54:00,47.7,7.4,29.23,NNW,344,0.0,0.0,19,0.00,,---,0.00,VWS V14.01,2013-11-19 00:54:00,
2013-11-18 18:55:00,47.3,7.1,29.23,NNW,344,0.0,0.0,19,0.00,,---,0.00,VWS V14.01,2013-11-19 00:55:00,
2013-11-18 18:56:00,47.3,7.1,29.23,NNW,344,0.0,0.0,19,0.00,,---,0.00,VWS V14.01,2013-11-19 00:56:00,
2013-11-18 18:58:00,47.3,7.1,29.23,NNW,344,0.0,0.0,19,0.00,,---,0.00,VWS V14.01,2013-11-19 00:58:00,
2013-11-18 18:59:00,47.3,7.1,29.23,NNW,344,0.0,0.0,19,0.00,,---,0.00,VWS V14.01,2013-11-19 00:59:00,
2013-11-18 19:00:00,47.3,7.1,29.23,NNW,344,0.0,0.0,19,0.00,,---,0.00,VWS V14.01,2013-11-19 01:00:00,
2013-11-18 19:01:00,47.3,7.1,29.23,NNW,344,0.0,0.0,19,0.00,,---,0.00,VWS V14.01,2013-11-19 01:01:00,
2013-11-18 19:03:00,47.3,7.1,29.23,NNW,344,0.0,0.0,19,0.00,,---,0.00,VWS V14.01,2013-11-19 01:03:00,
2013-11-18 19:04:00,46.8,6.7,29.23,NNW,344,0.0,0.0,19,0.00,,---,0.00,VWS V14.01,2013-11-19 01:04:00,
2013-11-18 19:05:00,46.8,6.7,29.23,NNW,343,0.0,0.0,19,0.00,,---,0.00,VWS V14.01,2013-11-19 01:05:00,
2013-11-18 19:06:00,46.8,6.7,29.23,NNW,343,0.0,0.0,19,0.00,,---,0.00,VWS V14.01,2013-11-19 01:06:00,
2013-11-18 19:08:00,46.8,6.7,29.23,NNW,343,0.0,0.0,19,0.00,,---,0.00,VWS V14.01,2013-11-19 01:08:00,
2013-11-18 19:09:00,46.8,6.7,29.23,NNW,343,0.0,0.0,19,0.00,,---,0.00,VWS V14.01,2013-11-19 01:09:00,
2013-11-18 19:11:00,46.8,6.7,29.23,NNW,343,0.0,0.0,19,0.00,,---,0.00,VWS V14.01,2013-11-19 01:11:00,
2013-11-18 19:13:00,46.4,6.4,29.23,NNW,344,0.0,0.0,19,0.00,,---,0.00,VWS V14.01,2013-11-19 01:13:00,
2013-11-18 19:14:00,46.4,6.4,29.23,NNW,343,0.0,0.0,19,0.00,,---,0.00,VWS V14.01,2013-11-19 01:14:00,
2013-11-18 19:16:00,46.4,6.4,29.23,NNW,343,0.0,0.0,19,0.00,,---,0.00,VWS V14.01,2013-11-19 01:16:00,
2013-11-18 19:18:00,46.4,6.4,29.23,NNW,343,0.0,0.0,19,0.00,,---,0.00,VWS V14.01,2013-11-19 01:18:00,
2013-11-18 19:19:00,46.4,6.4,29.23,NNW,344,0.0,0.0,19,0.00,,---,0.00,VWS V14.01,2013-11-19 01:19:00,
2013-11-18 19:21:00,46.4,6.4,29.23,NNW,344,0.0,0.0,19,0.00,,---,0.00,VWS V14.01,2013-11-19 01:21:00,
2013-11-18 19:23:00,46.0,7.2,29.23,NNW,343,0.0,0.0,20,0.00,,---,0.00,VWS V14.01,2013-11-19 01:23:00,
2013-11-18 19:24:00,46.0,7.2,29.23,NNW,343,0.0,0.0,20,0.00,,---,0.00,VWS V14.01,2013-11-19 01:24:00,
2013-11-18 19:25:00,46.0,7.2,29.23,NNW,344,0.0,0.0,20,0.00,,---,0.00,VWS V14.01,2013-11-19 01:25:00,
2013-11-18 19:26:00,46.0,7.2,29.23,NNW,344,0.0,0.0,20,0.00,,---,0.00,VWS V14.01,2013-11-19 01:26:00,
2013-11-18 19:28:00,46.0,7.2,29.23,NNW,344,0.0,0.0,20,0.00,,---,0.00,VWS V14.01,2013-11-19 01:28:00,
2013-11-18 19:29:00,46.0,7.2,29.23,NNW,344,0.0,0.0,20,0.00,,---,0.00,VWS V14.01,2013-11-19 01:29:00,
2013-11-18 19:30:00,46.0,7.2,29.23,NNW,344,0.0,0.0,20,0.00,,---,0.00,VWS V14.01,2013-11-19 01:30:00,
2013-11-18 19:31:00,46.0,7.2,29.23,NNW,344,0.0,0.0,20,0.00,,---,0.00,VWS V14.01,2013-11-19 01:31:00,
2013-11-18 19:32:00,46.0,7.2,29.23,NNW,344,0.0,0.0,20,0.00,,---,0.00,VWS V14.01,2013-11-19 01:32:00,
2013-11-18 19:33:00,46.0,7.2,29.23,NNW,343,0.0,0.0,20,0.00,,---,0.00,VWS V14.01,2013-11-19 01:33:00,
2013-11-18 19:34:00,46.0,7.2,29.23,NNW,343,0.0,0.0,20,0.00,,---,0.00,VWS V14.01,2013-11-19 01:34:00,
2013-11-18 19:35:00,46.0,7.2,29.23,NNW,344,0.0,0.0,20,0.00,,---,0.00,VWS V14.01,2013-11-19 01:35:00,
2013-11-18 19:36:00,46.0,7.2,29.23,NNW,344,0.0,0.0,20,0.00,,---,0.00,VWS V14.01,2013-11-19 01:36:00,
2013-11-18 19:38:00,46.0,7.2,29.23,NNW,344,0.0,0.0,20,0.00,,---,0.00,VWS V14.01,2013-11-19 01:38:00,
2013-11-18 19:39:00,46.0,7.2,29.23,NNW,344,0.0,0.0,20,0.00,,---,0.00,VWS V14.01,2013-11-19 01:39:00,
2013-11-18 19:40:00,46.0,7.2,29.23,NNW,344,0.0,0.0,20,0.00,,---,0.00,VWS V14.01,2013-11-19 01:40:00,
2013-11-18 19:41:00,46.0,7.2,29.23,NNW,343,0.0,0.0,20,0.00,,---,0.00,VWS V14.01,2013-11-19 01:41:00,
2013-11-18 19:43:00,46.0,7.2,29.23,NNW,344,0.0,0.0,20,0.00,,---,0.00,VWS V14.01,2013-11-19 01:43:00,
2013-11-18 19:44:00,46.0,7.2,29.23,NNW,344,0.0,0.0,20,0.00,,---,0.00,VWS V14.01,2013-11-19 01:44:00,
2013-11-18 19:45:00,46.0,7.2,29.23,NNW,344,0.0,0.0,20,0.00,,---,0.00,VWS V14.01,2013-11-19 01:45:00,
2013-11-18 19:46:00,44.6,6.0,29.23,NNW,343,0.0,0.0,20,0.00,,---,0.00,VWS V14.01,2013-11-19 01:46:00,
2013-11-18 19:48:00,44.6,6.0,29.23,NNW,344,0.0,0.0,20,0.00,,---,0.00,VWS V14.01,2013-11-19 01:48:00,
2013-11-18 19:49:00,44.6,6.0,29.23,NNW,344,0.0,0.0,20,0.00,,---,0.00,VWS V14.01,2013-11-19 01:49:00,
2013-11-18 19:50:00,44.6,6.0,29.23,NNW,344,0.0,0.0,20,0.00,,---,0.00,VWS V14.01,2013-11-19 01:50:00,
2013-11-18 19:51:00,44.6,6.0,29.23,NNW,344,0.0,0.0,20,0.00,,---,0.00,VWS V14.01,2013-11-19 01:51:00,
2013-11-18 19:52:00,44.6,6.0,29.23,NNW,344,0.0,0.0,20,0.00,,---,0.00,VWS V14.01,2013-11-19 01:52:00,
2013-11-18 19:54:00,44.6,6.0,29.23,NNW,344,0.0,0.0,20,0.00,,---,0.00,VWS V14.01,2013-11-19 01:54:00,
2013-11-18 19:55:00,44.6,6.0,29.23,NNW,343,0.0,0.0,20,0.00,,---,0.00,VWS V14.01,2013-11-19 01:55:00,
2013-11-18 19:56:00,44.6,6.0,29.23,NNW,343,0.0,0.0,20,0.00,,---,0.00,VWS V14.01,2013-11-19 01:56:00,
2013-11-18 19:57:00,44.6,6.0,29.23,NNW,344,0.0,0.0,20,0.00,,---,0.00,VWS V14.01,2013-11-19 01:57:00,
2013-11-18 19:59:00,44.6,6.0,29.23,NNW,344,0.0,0.0,20,0.00,,---,0.00,VWS V14.01,2013-11-19 01:59:00,
2013-11-18 20:00:00,44.6,6.0,29.23,NNW,344,0.0,0.0,20,0.00,,---,0.00,VWS V14.01,2013-11-19 02:00:00,
2013-11-18 20:01:00,44.6,6.0,29.23,NNW,344,0.0,0.0,20,0.00,,---,0.00,VWS V14.01,2013-11-19 02:01:00,
2013-11-18 20:02:00,44.6,6.0,29.23,NNW,344,0.0,0.0,20,0.00,,---,0.00,VWS V14.01,2013-11-19 02:02:00,
2013-11-18 20:04:00,44.6,6.0,29.23,NNW,344,0.0,0.0,20,0.00,,---,0.00,VWS V14.01,2013-11-19 02:04:00,
2013-11-18 20:05:00,44.6,6.0,29.23,NNW,344,0.0,0.0,20,0.00,,---,0.00,VWS V14.01,2013-11-19 02:05:00,
2013-11-18 20:07:00,44.6,6.0,29.23,NNW,344,0.0,0.0,20,0.00,,---,0.00,VWS V14.01,2013-11-19 02:07:00,
2013-11-18 20:09:00,44.6,6.0,29.23,NNW,344,0.0,0.0,20,0.00,,---,0.00,VWS V14.01,2013-11-19 02:09:00,
2013-11-18 20:10:00,44.6,6.0,29.23,NNW,344,0.0,0.0,20,0.00,,---,0.00,VWS V14.01,2013-11-19 02:10:00,
2013-11-18 20:12:00,44.6,6.0,29.23,NNW,344,0.0,0.0,20,0.00,,---,0.00,VWS V14.01,2013-11-19 02:12:00,
2013-11-18 20:14:00,44.6,6.0,29.23,NNW,344,0.0,0.0,20,0.00,,---,0.00,VWS V14.01,2013-11-19 02:14:00,
2013-11-18 20:15:00,44.6,6.0,29.23,NNW,344,0.0,0.0,20,0.00,,---,0.00,VWS V14.01,2013-11-19 02:15:00,
2013-11-18 20:17:00,44.6,6.0,29.23,NNW,344,0.0,0.0,20,0.00,,---,0.00,VWS V14.01,2013-11-19 02:17:00,
2013-11-18 20:19:00,44.6,6.0,29.23,NNW,344,0.0,0.0,20,0.00,,---,0.00,VWS V14.01,2013-11-19 02:19:00,
2013-11-18 20:20:00,44.6,6.0,29.23,NNW,344,0.0,0.0,20,0.00,,---,0.00,VWS V14.01,2013-11-19 02:20:00,
2013-11-18 20:22:00,44.6,6.0,29.23,NNW,344,0.0,0.0,20,0.00,,---,0.00,VWS V14.01,2013-11-19 02:22:00,
2013-11-18 20:24:00,44.6,6.0,29.23,NNW,344,0.0,0.0,20,0.00,,---,0.00,VWS V14.01,2013-11-19 02:24:00,
2013-11-18 20:25:00,44.6,6.0,29.23,NNW,344,0.0,0.0,20,0.00,,---,0.00,VWS V14.01,2013-11-19 02:25:00,
2013-11-18 20:26:00,44.6,6.0,29.23,NNW,344,0.0,0.0,20,0.00,,---,0.00,VWS V14.01,2013-11-19 02:26:00,
2013-11-18 20:27:00,44.6,6.0,29.23,NNW,344,0.0,0.0,20,0.00,,---,0.00,VWS V14.01,2013-11-19 02:27:00,
2013-11-18 20:29:00,44.6,6.0,29.23,NNW,344,0.0,0.0,20,0.00,,---,0.00,VWS V14.01,2013-11-19 02:29:00,
2013-11-18 20:30:00,44.6,6.0,29.23,NNW,344,0.0,0.0,20,0.00,,---,0.00,VWS V14.01,2013-11-19 02:30:00,
2013-11-18 20:31:00,44.6,6.0,29.23,NNW,343,0.0,0.0,20,0.00,,---,0.00,VWS V14.01,2013-11-19 02:31:00,
2013-11-18 20:32:00,44.6,6.0,29.23,NNW,343,0.0,0.0,20,0.00,,---,0.00,VWS V14.01,2013-11-19 02:32:00,
2013-11-18 20:34:00,44.6,6.0,29.23,NNW,344,0.0,0.0,20,0.00,,---,0.00,VWS V14.01,2013-11-19 02:34:00,
2013-11-18 20:35:00,44.6,6.0,29.23,NNW,344,0.0,0.0,20,0.00,,---,0.00,VWS V14.01,2013-11-19 02:35:00,
2013-11-18 20:36:00,44.6,6.0,29.23,NNW,344,0.0,0.0,20,0.00,,---,0.00,VWS V14.01,2013-11-19 02:36:00,
2013-11-18 20:38:00,44.6,6.0,29.23,NNW,344,0.0,0.0,20,0.00,,---,0.00,VWS V14.01,2013-11-19 02:38:00,
2013-11-18 20:39:00,44.6,6.0,29.23,NNW,344,0.0,0.0,20,0.00,,---,0.00,VWS V14.01,2013-11-19 02:39:00,
2013-11-18 20:40:00,44.6,6.0,29.23,NNW,344,0.0,0.0,20,0.00,,---,0.00,VWS V14.01,2013-11-19 02:40:00,
2013-11-18 20:41:00,44.6,6.0,29.23,NNW,343,0.0,0.0,20,0.00,,---,0.00,VWS V14.01,2013-11-19 02:41:00,
2013-11-18 20:42:00,44.6,6.0,29.23,NNW,343,0.0,0.0,20,0.00,,---,0.00,VWS V14.01,2013-11-19 02:42:00,
2013-11-18 20:43:00,44.6,6.0,29.23,NNW,343,0.0,0.0,20,0.00,,---,0.00,VWS V14.01,2013-11-19 02:43:00,
2013-11-18 20:44:00,44.6,6.0,29.23,NNW,344,0.0,0.0,20,0.00,,---,0.00,VWS V14.01,2013-11-19 02:44:00,
2013-11-18 20:45:00,44.6,6.0,29.23,NNW,344,0.0,0.0,20,0.00,,---,0.00,VWS V14.01,2013-11-19 02:45:00,
2013-11-18 20:46:00,44.6,6.0,29.23,NNW,344,0.0,0.0,20,0.00,,---,0.00,VWS V14.01,2013-11-19 02:46:00,
2013-11-18 20:47:00,44.6,6.0,29.23,NNW,343,0.0,0.0,20,0.00,,---,0.00,VWS V14.01,2013-11-19 02:47:00,
2013-11-18 20:48:00,44.6,6.0,29.23,NNW,343,0.0,0.0,20,0.00,,---,0.00,VWS V14.01,2013-11-19 02:48:00,
2013-11-18 20:50:00,44.6,6.0,29.23,NNW,343,0.0,0.0,20,0.00,,---,0.00,VWS V14.01,2013-11-19 02:50:00,
2013-11-18 20:51:00,44.6,6.0,29.23,NNW,343,0.0,0.0,20,0.00,,---,0.00,VWS V14.01,2013-11-19 02:51:00,
2013-11-18 20:52:00,44.6,6.0,29.23,NNW,343,0.0,0.0,20,0.00,,---,0.00,VWS V14.01,2013-11-19 02:52:00,
2013-11-18 20:53:00,44.6,6.0,29.23,NNW,343,0.0,0.0,20,0.00,,---,0.00,VWS V14.01,2013-11-19 02:53:00,
2013-11-18 20:55:00,44.6,6.0,29.23,NNW,343,0.0,0.0,20,0.00,,---,0.00,VWS V14.01,2013-11-19 02:55:00,
2013-11-18 20:56:00,44.6,6.0,29.23,NNW,343,0.0,0.0,20,0.00,,---,0.00,VWS V14.01,2013-11-19 02:56:00,
2013-11-18 20:57:00,44.6,6.0,29.23,NNW,343,0.0,0.0,20,0.00,,---,0.00,VWS V14.01,2013-11-19 02:57:00,
2013-11-18 20:58:00,44.6,6.0,29.23,NNW,343,0.0,0.0,20,0.00,,---,0.00,VWS V14.01,2013-11-19 02:58:00,
2013-11-18 21:00:00,44.6,6.0,29.23,NNW,344,0.0,0.0,20,0.00,,---,0.00,VWS V14.01,2013-11-19 03:00:00,
2013-11-18 21:01:00,44.6,6.0,29.23,NNW,343,0.0,0.0,20,0.00,,---,0.00,VWS V14.01,2013-11-19 03:01:00,
2013-11-18 21:03:00,44.6,6.0,29.23,NNW,343,0.0,0.0,20,0.00,,---,0.00,VWS V14.01,2013-11-19 03:03:00,
2013-11-18 21:05:00,44.6,6.0,29.23,NNW,343,0.0,0.0,20,0.00,,---,0.00,VWS V14.01,2013-11-19 03:05:00,
2013-11-18 21:06:00,44.6,6.0,29.23,NNW,343,0.0,0.0,20,0.00,,---,0.00,VWS V14.01,2013-11-19 03:06:00,
2013-11-18 21:07:00,44.6,6.0,29.23,NNW,343,0.0,0.0,20,0.00,,---,0.00,VWS V14.01,2013-11-19 03:07:00,
2013-11-18 21:08:00,44.6,6.0,29.23,NNW,344,0.0,0.0,20,0.00,,---,0.00,VWS V14.01,2013-11-19 03:08:00,
2013-11-18 21:11:00,44.6,6.0,29.23,NNW,343,0.0,0.0,20,0.00,,---,0.00,VWS V14.01,2013-11-19 03:11:00,
2013-11-18 21:12:00,44.6,6.0,29.23,NNW,343,0.0,0.0,20,0.00,,---,0.00,VWS V14.01,2013-11-19 03:12:00,
2013-11-18 21:13:00,44.6,6.0,29.23,NNW,343,0.0,0.0,20,0.00,,---,0.00,VWS V14.01,2013-11-19 03:13:00,
2013-11-18 21:16:00,44.6,6.0,29.21,NNW,343,0.0,0.0,20,0.00,,---,0.00,VWS V14.01,2013-11-19 03:16:00,
2013-11-18 21:17:00,44.6,6.0,29.21,NNW,343,0.0,0.0,20,0.00,,---,0.00,VWS V14.01,2013-11-19 03:17:00,
2013-11-18 21:18:00,44.6,6.0,29.21,NNW,343,0.0,0.0,20,0.00,,---,0.00,VWS V14.01,2013-11-19 03:18:00,
2013-11-18 21:21:00,44.6,6.0,29.21,NNW,343,0.0,0.0,20,0.00,,---,0.00,VWS V14.01,2013-11-19 03:21:00,
2013-11-18 21:22:00,44.6,6.0,29.21,NNW,343,0.0,0.0,20,0.00,,---,0.00,VWS V14.01,2013-11-19 03:22:00,
2013-11-18 21:23:00,44.6,6.0,29.21,NNW,343,0.0,0.0,20,0.00,,---,0.00,VWS V14.01,2013-11-19 03:23:00,
2013-11-18 21:24:00,44.6,6.0,29.21,NNW,343,0.0,0.0,20,0.00,,---,0.00,VWS V14.01,2013-11-19 03:24:00,
2013-11-18 21:26:00,44.6,6.0,29.21,NNW,343,0.0,0.0,20,0.00,,---,0.00,VWS V14.01,2013-11-19 03:26:00,
2013-11-18 21:27:00,44.6,6.0,29.21,NNW,343,0.0,0.0,20,0.00,,---,0.00,VWS V14.01,2013-11-19 03:27:00,
2013-11-18 21:28:00,44.6,6.0,29.21,NNW,343,0.0,0.0,20,0.00,,---,0.00,VWS V14.01,2013-11-19 03:28:00,
2013-11-18 21:29:00,44.6,6.0,29.21,NNW,343,0.0,0.0,20,0.00,,---,0.00,VWS V14.01,2013-11-19 03:29:00,
2013-11-18 21:31:00,44.6,6.0,29.23,NNW,343,0.0,0.0,20,0.00,,---,0.00,VWS V14.01,2013-11-19 03:31:00,
2013-11-18 21:32:00,44.6,6.0,29.23,NNW,343,0.0,0.0,20,0.00,,---,0.00,VWS V14.01,2013-11-19 03:32:00,
2013-11-18 21:33:00,44.6,6.0,29.23,NNW,343,0.0,0.0,20,0.00,,---,0.00,VWS V14.01,2013-11-19 03:33:00,
2013-11-18 21:34:00,44.6,6.0,29.23,NNW,343,0.0,0.0,20,0.00,,---,0.00,VWS V14.01,2013-11-19 03:34:00,
2013-11-18 21:36:00,44.6,6.0,29.23,NNW,343,0.0,0.0,20,0.00,,---,0.00,VWS V14.01,2013-11-19 03:36:00,
2013-11-18 21:37:00,44.6,6.0,29.23,NNW,343,0.0,0.0,20,0.00,,---,0.00,VWS V14.01,2013-11-19 03:37:00,
2013-11-18 21:38:00,44.6,6.0,29.23,NNW,343,0.0,0.0,20,0.00,,---,0.00,VWS V14.01,2013-11-19 03:38:00,
2013-11-18 21:39:00,44.6,6.0,29.23,NNW,343,0.0,0.0,20,0.00,,---,0.00,VWS V14.01,2013-11-19 03:39:00,
2013-11-18 21:41:00,44.6,6.0,29.23,NNW,343,0.0,0.0,20,0.00,,---,0.00,VWS V14.01,2013-11-19 03:41:00,
2013-11-18 21:43:00,44.6,6.0,29.23,NNW,343,0.0,0.0,20,0.00,,---,0.00,VWS V14.01,2013-11-19 03:43:00,
2013-11-18 21:44:00,44.6,6.0,29.23,NNW,343,0.0,0.0,20,0.00,,---,0.00,VWS V14.01,2013-11-19 03:44:00,
2013-11-18 21:46:00,44.6,6.0,29.23,NNW,343,0.0,0.0,20,0.00,,---,0.00,VWS V14.01,2013-11-19 03:46:00,
2013-11-18 21:48:00,44.6,6.0,29.23,NNW,343,0.0,0.0,20,0.00,,---,0.00,VWS V14.01,2013-11-19 03:48:00,
2013-11-18 21:49:00,44.6,6.0,29.23,NNW,343,0.0,0.0,20,0.00,,---,0.00,VWS V14.01,2013-11-19 03:49:00,
2013-11-18 21:51:00,44.6,6.0,29.23,NNW,343,0.0,0.0,20,0.00,,---,0.00,VWS V14.01,2013-11-19 03:51:00,
2013-11-18 21:53:00,44.6,6.0,29.23,NNW,343,0.0,0.0,20,0.00,,---,0.00,VWS V14.01,2013-11-19 03:53:00,
2013-11-18 21:54:00,44.6,6.0,29.23,NNW,343,0.0,0.0,20,0.00,,---,0.00,VWS V14.01,2013-11-19 03:54:00,
2013-11-18 21:55:00,44.6,6.0,29.23,NNW,343,0.0,0.0,20,0.00,,---,0.00,VWS V14.01,2013-11-19 03:55:00,
2013-11-18 21:56:00,44.6,6.0,29.23,NNW,343,0.0,0.0,20,0.00,,---,0.00,VWS V14.01,2013-11-19 03:56:00,
2013-11-18 21:58:00,44.6,6.0,29.23,NNW,343,0.0,0.0,20,0.00,,---,0.00,VWS V14.01,2013-11-19 03:58:00,
2013-11-18 21:59:00,44.6,6.0,29.23,NNW,343,0.0,0.0,20,0.00,,---,0.00,VWS V14.01,2013-11-19 03:59:00,
2013-11-18 22:00:00,44.6,6.0,29.23,NNW,343,0.0,0.0,20,0.00,,---,0.00,VWS V14.01,2013-11-19 04:00:00,
2013-11-18 22:03:00,44.6,6.0,29.23,NNW,343,0.0,0.0,20,0.00,,---,0.00,VWS V14.01,2013-11-19 04:03:00,
2013-11-18 22:04:00,44.6,6.0,29.23,NNW,343,0.0,0.0,20,0.00,,---,0.00,VWS V14.01,2013-11-19 04:04:00,
2013-11-18 22:05:00,44.6,6.0,29.23,NNW,343,0.0,0.0,20,0.00,,---,0.00,VWS V14.01,2013-11-19 04:05:00,
2013-11-18 22:06:00,44.6,6.0,29.23,NNW,343,0.0,0.0,20,0.00,,---,0.00,VWS V14.01,2013-11-19 04:06:00,
2013-11-18 22:07:00,44.6,6.0,29.23,NNW,343,0.0,0.0,20,0.00,,---,0.00,VWS V14.01,2013-11-19 04:07:00,
2013-11-18 22:08:00,44.6,6.0,29.23,NNW,343,0.0,0.0,20,0.00,,---,0.00,VWS V14.01,2013-11-19 04:08:00,
2013-11-18 22:09:00,44.6,6.0,29.23,NNW,343,0.0,0.0,20,0.00,,---,0.00,VWS V14.01,2013-11-19 04:09:00,
2013-11-18 22:10:00,44.6,6.0,29.23,NNW,343,0.0,0.0,20,0.00,,---,0.00,VWS V14.01,2013-11-19 04:10:00,
2013-11-18 22:11:00,44.6,6.0,29.23,NNW,343,0.0,0.0,20,0.00,,---,0.00,VWS V14.01,2013-11-19 04:11:00,
2013-11-18 22:12:00,44.6,6.0,29.23,NNW,343,0.0,0.0,20,0.00,,---,0.00,VWS V14.01,2013-11-19 04:12:00,
2013-11-18 22:13:00,44.6,6.0,29.23,NNW,343,0.0,0.0,20,0.00,,---,0.00,VWS V14.01,2013-11-19 04:13:00,
2013-11-18 22:15:00,44.6,6.0,29.23,NNW,343,0.0,0.0,20,0.00,,---,0.00,VWS V14.01,2013-11-19 04:15:00,
2013-11-18 22:16:00,44.6,6.0,29.23,NNW,343,0.0,0.0,20,0.00,,---,0.00,VWS V14.01,2013-11-19 04:16:00,
2013-11-18 22:17:00,44.6,6.0,29.23,NNW,343,0.0,0.0,20,0.00,,---,0.00,VWS V14.01,2013-11-19 04:17:00,
2013-11-18 22:18:00,44.6,6.0,29.23,NNW,343,0.0,0.0,20,0.00,,---,0.00,VWS V14.01,2013-11-19 04:18:00,
2013-11-18 22:20:00,44.6,6.0,29.23,NNW,343,0.0,0.0,20,0.00,,---,0.00,VWS V14.01,2013-11-19 04:20:00,
2013-11-18 22:21:00,44.6,6.0,29.23,NNW,343,0.0,0.0,20,0.00,,---,0.00,VWS V14.01,2013-11-19 04:21:00,
2013-11-18 22:22:00,44.6,6.0,29.23,NNW,343,0.0,0.0,20,0.00,,---,0.00,VWS V14.01,2013-11-19 04:22:00,
2013-11-18 22:23:00,44.6,6.0,29.23,NNW,343,0.0,0.0,20,0.00,,---,0.00,VWS V14.01,2013-11-19 04:23:00,
2013-11-18 22:25:00,44.6,6.0,29.23,NNW,343,0.0,0.0,20,0.00,,---,0.00,VWS V14.01,2013-11-19 04:25:00,
2013-11-18 22:26:00,44.6,6.0,29.23,NNW,343,0.0,0.0,20,0.00,,---,0.00,VWS V14.01,2013-11-19 04:26:00,
2013-11-18 22:27:00,44.6,6.0,29.23,NNW,343,0.0,0.0,20,0.00,,---,0.00,VWS V14.01,2013-11-19 04:27:00,
2013-11-18 22:29:00,44.6,6.0,29.23,NNW,343,0.0,0.0,20,0.00,,---,0.00,VWS V14.01,2013-11-19 04:29:00,
2013-11-18 22:30:00,44.6,6.0,29.23,NNW,343,0.0,0.0,20,0.00,,---,0.00,VWS V14.01,2013-11-19 04:30:00,
2013-11-18 22:31:00,44.6,6.0,29.23,NNW,343,0.0,0.0,20,0.00,,---,0.00,VWS V14.01,2013-11-19 04:31:00,
2013-11-18 22:33:00,44.6,6.0,29.23,NNW,343,0.0,0.0,20,0.00,,---,0.00,VWS V14.01,2013-11-19 04:33:00,
2013-11-18 22:34:00,44.6,6.0,29.23,NNW,343,0.0,0.0,20,0.00,,---,0.00,VWS V14.01,2013-11-19 04:34:00,
2013-11-18 22:35:00,44.6,6.0,29.23,NNW,343,0.0,0.0,20,0.00,,---,0.00,VWS V14.01,2013-11-19 04:35:00,
2013-11-18 22:36:00,44.6,6.0,29.23,NNW,343,0.0,0.0,20,0.00,,---,0.00,VWS V14.01,2013-11-19 04:36:00,
2013-11-18 22:37:00,44.6,6.0,29.23,NNW,343,0.0,0.0,20,0.00,,---,0.00,VWS V14.01,2013-11-19 04:37:00,
2013-11-18 22:38:00,44.6,6.0,29.23,NNW,343,0.0,0.0,20,0.00,,---,0.00,VWS V14.01,2013-11-19 04:38:00,
2013-11-18 22:39:00,44.6,6.0,29.23,NNW,343,0.0,0.0,20,0.00,,---,0.00,VWS V14.01,2013-11-19 04:39:00,
2013-11-18 22:40:00,44.6,6.0,29.23,NNW,343,0.0,0.0,20,0.00,,---,0.00,VWS V14.01,2013-11-19 04:40:00,
2013-11-18 22:41:00,44.6,6.0,29.23,NNW,343,0.0,0.0,20,0.00,,---,0.00,VWS V14.01,2013-11-19 04:41:00,
2013-11-18 22:42:00,44.6,6.0,29.23,NNW,343,0.0,0.0,20,0.00,,---,0.00,VWS V14.01,2013-11-19 04:42:00,
2013-11-18 22:43:00,44.6,6.0,29.23,NNW,343,0.0,0.0,20,0.00,,---,0.00,VWS V14.01,2013-11-19 04:43:00,
2013-11-18 22:44:00,44.6,6.0,29.23,NNW,343,0.0,0.0,20,0.00,,---,0.00,VWS V14.01,2013-11-19 04:44:00,
2013-11-18 22:45:00,44.6,6.0,29.23,NNW,343,0.0,0.0,20,0.00,,---,0.00,VWS V14.01,2013-11-19 04:45:00,
2013-11-18 22:46:00,44.6,6.0,29.23,NNW,343,0.0,0.0,20,0.00,,---,0.00,VWS V14.01,2013-11-19 04:46:00,
2013-11-18 22:47:00,44.6,6.0,29.23,NNW,343,0.0,0.0,20,0.00,,---,0.00,VWS V14.01,2013-11-19 04:47:00,
2013-11-18 22:48:00,44.6,6.0,29.23,NNW,343,0.0,0.0,20,0.00,,---,0.00,VWS V14.01,2013-11-19 04:48:00,
2013-11-18 22:49:00,44.6,6.0,29.23,NNW,343,0.0,0.0,20,0.00,,---,0.00,VWS V14.01,2013-11-19 04:49:00,
2013-11-18 22:51:00,44.6,6.0,29.23,NNW,343,0.0,0.0,20,0.00,,---,0.00,VWS V14.01,2013-11-19 04:51:00,
2013-11-18 22:52:00,44.6,6.0,29.23,NNW,343,0.0,0.0,20,0.00,,---,0.00,VWS V14.01,2013-11-19 04:52:00,
2013-11-18 22:53:00,44.6,6.0,29.23,NNW,343,0.0,0.0,20,0.00,,---,0.00,VWS V14.01,2013-11-19 04:53:00,
2013-11-18 22:54:00,44.6,6.0,29.23,NNW,343,0.0,0.0,20,0.00,,---,0.00,VWS V14.01,2013-11-19 04:54:00,
2013-11-18 22:56:00,44.6,6.0,29.23,NNW,343,0.0,0.0,20,0.00,,---,0.00,VWS V14.01,2013-11-19 04:56:00,
2013-11-18 22:57:00,44.6,6.0,29.23,NNW,343,0.0,0.0,20,0.00,,---,0.00,VWS V14.01,2013-11-19 04:57:00,
2013-11-18 22:58:00,44.6,6.0,29.23,NNW,343,0.0,0.0,20,0.00,,---,0.00,VWS V14.01,2013-11-19 04:58:00,
2013-11-18 22:59:00,44.6,6.0,29.23,NNW,343,0.0,0.0,20,0.00,,---,0.00,VWS V14.01,2013-11-19 04:59:00,
2013-11-18 23:01:00,44.6,6.0,29.23,NNW,343,0.0,0.0,20,0.00,,---,0.00,VWS V14.01,2013-11-19 05:01:00,
2013-11-18 23:02:00,44.6,6.0,29.23,NNW,343,0.0,0.0,20,0.00,,---,0.00,VWS V14.01,2013-11-19 05:02:00,
2013-11-18 23:06:00,44.6,6.0,29.23,NNW,343,0.0,0.0,20,0.00,,---,0.00,VWS V14.01,2013-11-19 05:06:00,
2013-11-18 23:07:00,44.6,6.0,29.23,NNW,343,0.0,0.0,20,0.00,,---,0.00,VWS V14.01,2013-11-19 05:07:00,
2013-11-18 23:11:00,44.6,6.0,29.23,NNW,343,0.0,0.0,20,0.00,,---,0.00,VWS V14.01,2013-11-19 05:11:00,
2013-11-18 23:12:00,44.6,6.0,29.23,NNW,343,0.0,0.0,20,0.00,,---,0.00,VWS V14.01,2013-11-19 05:12:00,
2013-11-18 23:16:00,44.6,6.0,29.23,NNW,343,0.0,0.0,20,0.00,,---,0.00,VWS V14.01,2013-11-19 05:16:00,
2013-11-18 23:17:00,44.6,6.0,29.23,NNW,343,0.0,0.0,20,0.00,,---,0.00,VWS V14.01,2013-11-19 05:17:00,
2013-11-18 23:21:00,44.6,6.0,29.23,NNW,343,0.0,0.0,20,0.00,,---,0.00,VWS V14.01,2013-11-19 05:21:00,
2013-11-18 23:22:00,44.6,6.0,29.23,NNW,343,0.0,0.0,20,0.00,,---,0.00,VWS V14.01,2013-11-19 05:22:00,
2013-11-18 23:23:00,44.6,6.0,29.23,NNW,343,0.0,0.0,20,0.00,,---,0.00,VWS V14.01,2013-11-19 05:23:00,
2013-11-18 23:26:00,44.6,6.0,29.23,NNW,343,0.0,0.0,20,0.00,,---,0.00,VWS V14.01,2013-11-19 05:26:00,
2013-11-18 23:27:00,44.6,6.0,29.23,NNW,343,0.0,0.0,20,0.00,,---,0.00,VWS V14.01,2013-11-19 05:27:00,
2013-11-18 23:28:00,44.6,6.0,29.23,NNW,343,0.0,0.0,20,0.00,,---,0.00,VWS V14.01,2013-11-19 05:28:00,
2013-11-18 23:31:00,44.6,6.0,29.23,NNW,343,0.0,0.0,20,0.00,,---,0.00,VWS V14.01,2013-11-19 05:31:00,
2013-11-18 23:32:00,44.6,6.0,29.23,NNW,343,0.0,0.0,20,0.00,,---,0.00,VWS V14.01,2013-11-19 05:32:00,
2013-11-18 23:33:00,44.6,6.0,29.23,NNW,343,0.0,0.0,20,0.00,,---,0.00,VWS V14.01,2013-11-19 05:33:00,
2013-11-18 23:36:00,44.6,6.0,29.23,NNW,343,0.0,0.0,20,0.00,,---,0.00,VWS V14.01,2013-11-19 05:36:00,
2013-11-18 23:37:00,44.6,6.0,29.23,NNW,343,0.0,0.0,20,0.00,,---,0.00,VWS V14.01,2013-11-19 05:37:00,
2013-11-18 23:38:00,44.6,6.0,29.23,NNW,343,0.0,0.0,20,0.00,,---,0.00,VWS V14.01,2013-11-19 05:38:00,
2013-11-18 23:41:00,44.6,6.0,29.23,NNW,344,0.0,0.0,20,0.00,,---,0.00,VWS V14.01,2013-11-19 05:41:00,
2013-11-18 23:42:00,44.6,6.0,29.23,NNW,344,0.0,0.0,20,0.00,,---,0.00,VWS V14.01,2013-11-19 05:42:00,
2013-11-18 23:43:00,44.6,6.0,29.23,NNW,344,0.0,0.0,20,0.00,,---,0.00,VWS V14.01,2013-11-19 05:43:00,
2013-11-18 23:44:00,44.6,6.0,29.23,NNW,344,0.0,0.0,20,0.00,,---,0.00,VWS V14.01,2013-11-19 05:44:00,
2013-11-18 23:46:00,44.6,6.0,29.23,NNW,343,0.0,0.0,20,0.00,,---,0.00,VWS V14.01,2013-11-19 05:46:00,
2013-11-18 23:47:00,44.6,6.0,29.23,NNW,343,0.0,0.0,20,0.00,,---,0.00,VWS V14.01,2013-11-19 05:47:00,
2013-11-18 23:49:00,44.6,6.0,29.23,NNW,343,0.0,0.0,20,0.00,,---,0.00,VWS V14.01,2013-11-19 05:49:00,
2013-11-18 23:52:00,44.6,6.0,29.23,NNW,343,0.0,0.0,20,0.00,,---,0.00,VWS V14.01,2013-11-19 05:52:00,
2013-11-18 23:53:00,44.6,6.0,29.23,NNW,343,0.0,0.0,20,0.00,,---,0.00,VWS V14.01,2013-11-19 05:53:00,
2013-11-18 23:54:00,44.6,6.0,29.23,NNW,343,0.0,0.0,20,0.00,,---,0.00,VWS V14.01,2013-11-19 05:54:00,
2013-11-18 23:57:00,44.6,6.0,29.23,NNW,343,0.0,0.0,20,0.00,,---,0.00,VWS V14.01,2013-11-19 05:57:00,
2013-11-18 23:59:00,44.6,6.0,29.23,NNW,343,0.0,0.0,20,0.00,,---,0.00,VWS V14.01,2013-11-19 05:59:00,